KC5DAQ-25 Weather Reports


Display with metric or nautical units.
time (UTC)temp
F
wind
direction
speed
MPH
gust
MPH
rain 1hr
in
rain 24hr
in
rain mn
in
humidity
%
barometer
mb
20260506234803 75 138 0.0 3.0 0.00 0.03 0.03 81 1001.3
20260506234709 75 130 0.0 3.0 0.00 0.03 0.03 81 1001.2
20260506234602 75 134 0.0 3.0 0.00 0.03 0.03 81 1001.3
20260506234503 75 100 0.0 3.0 0.00 0.03 0.03 81 1001.2
20260506234403 75 100 0.0 3.0 0.00 0.03 0.03 81 1001.2
20260506234303 76 78 0.0 3.0 0.00 0.03 0.03 81 1001.2
20260506234202 76 99 0.0 3.0 0.00 0.03 0.03 81 1001.2
20260506234102 76 99 1.0 3.0 0.00 0.03 0.03 81 1001.2
20260506234002 76 103 1.0 3.0 0.00 0.03 0.03 81 1001.1
20260506233903 76 99 1.0 3.0 0.00 0.03 0.03 81 1001.1
20260506233804 76 120 0.0 1.0 0.00 0.03 0.03 81 1001.2
20260506233703 76 120 0.0 1.0 0.00 0.03 0.03 81 1001.2
20260506233603 76 120 0.0 1.0 0.00 0.03 0.03 81 1001.1
20260506233504 77 110 0.0 1.0 0.00 0.03 0.03 81 1001.1
20260506233405 77 110 0.0 1.0 0.00 0.03 0.03 81 1001.1
20260506233303 77 110 0.0 2.0 0.00 0.03 0.03 81 1001.1
20260506233204 77 110 0.0 2.0 0.00 0.03 0.03 81 1001.0
20260506233104 77 109 0.0 2.0 0.00 0.03 0.03 81 1001.0
20260506233006 77 55 0.0 4.0 0.00 0.03 0.03 81 1001.0
20260506232903 77 55 0.0 4.0 0.00 0.03 0.03 81 1001.0
20260506232804 77 56 0.0 4.0 0.00 0.03 0.03 81 1001.0
20260506232702 77 56 0.0 4.0 0.00 0.03 0.03 81 1001.0
20260506232604 77 49 0.0 4.0 0.00 0.03 0.03 81 1001.0
20260506232503 78 49 0.0 4.0 0.00 0.03 0.03 81 1000.9
20260506232404 78 334 0.0 4.0 0.00 0.03 0.03 81 1001.0
20260506232306 78 123 0.0 4.0 0.00 0.03 0.03 81 1000.9
20260506232203 78 135 1.0 4.0 0.00 0.03 0.03 81 1000.9
20260506232104 78 324 0.0 4.0 0.01 0.03 0.03 81 1000.9
20260506232004 78 148 0.0 2.0 0.01 0.03 0.03 81 1000.9
20260506231904 78 148 0.0 2.0 0.01 0.03 0.03 81 1000.9
20260506231804 78 148 0.0 2.0 0.01 0.03 0.03 82 1000.8
20260506231703 79 93 0.0 2.0 0.01 0.03 0.03 82 1000.8
20260506231602 79 90 0.0 2.0 0.01 0.03 0.03 82 1000.8
20260506231504 79 66 0.0 2.0 0.01 0.03 0.03 82 1000.8
20260506231403 79 55 0.0 3.0 0.01 0.03 0.03 82 1000.7
20260506231303 79 59 0.0 6.0 0.01 0.03 0.03 82 1000.7
20260506231203 80 87 0.0 6.0 0.01 0.03 0.03 82 1000.7
20260506231108 80 145 0.0 6.0 0.01 0.03 0.03 82 1000.6
20260506231004 80 145 0.0 6.0 0.01 0.03 0.03 82 1000.7
20260506230902 80 145 1.0 6.0 0.01 0.03 0.03 82 1000.6
20260506230802 80 145 1.0 6.0 0.01 0.03 0.03 82 1000.6
20260506230703 80 42 0.0 6.0 0.01 0.03 0.03 82 1000.6
20260506230604 80 1 1.0 6.0 0.01 0.03 0.03 82 1000.5
20260506230504 81 324 1.0 6.0 0.01 0.03 0.03 82 1000.5
20260506230402 81 78 1.0 6.0 0.01 0.03 0.03 82 1000.5
20260506230303 81 302 0.0 0.0 0.01 0.03 0.03 83 1000.5
20260506230201 81 300 0.0 0.0 0.01 0.03 0.03 83 1000.4
20260506230103 81 92 0.0 0.0 0.01 0.03 0.03 83 1000.4
20260506230002 81 137 0.0 0.0 0.01 0.02 0.03 83 1000.4
20260506225903 81 135 0.0 0.0 0.01 0.02 0.03 83 1000.4
20260506225804 81 94 0.0 1.0 0.01 0.02 0.03 83 1000.3
20260506225656 82 94 0.0 1.0 0.01 0.02 0.03 83 1000.3
20260506225553 82 214 0.0 1.0 0.02 0.02 0.03 83 1000.4
20260506225452 82 214 0.0 1.0 0.03 0.02 0.03 83 1000.4
20260506225352 82 214 0.0 1.0 0.03 0.02 0.03 83 1000.4
20260506225251 82 214 0.0 1.0 0.03 0.02 0.03 83 1000.4
20260506225153 82 214 0.0 1.0 0.03 0.02 0.03 83 1000.3
20260506225052 82 226 0.0 1.0 0.03 0.02 0.03 83 1000.3
20260506224952 82 293 0.0 1.0 0.03 0.02 0.03 83 1000.3
20260506224851 82 293 0.0 1.0 0.03 0.02 0.03 83 1000.2
20260506224752 82 288 0.0 1.0 0.03 0.02 0.03 83 1000.2
20260506224651 82 185 0.0 1.0 0.03 0.02 0.03 83 1000.2
20260506224553 82 185 0.0 1.0 0.03 0.02 0.03 83 1000.2
20260506224453 82 185 0.0 1.0 0.03 0.02 0.03 83 1000.2
20260506224352 82 185 0.0 0.0 0.03 0.02 0.03 83 1000.2
20260506224252 82 185 0.0 0.0 0.03 0.02 0.03 82 1000.2
20260506224151 82 185 0.0 0.0 0.03 0.02 0.03 82 1000.3
20260506224052 82 185 0.0 0.0 0.03 0.02 0.03 82 1000.2
20260506223952 82 185 0.0 0.0 0.03 0.02 0.03 82 1000.3
20260506223851 82 185 0.0 0.0 0.03 0.02 0.03 82 1000.2
20260506223751 82 185 0.0 0.0 0.03 0.02 0.03 82 1000.2
20260506223652 82 185 0.0 0.0 0.03 0.02 0.03 82 1000.2
20260506223552 83 185 0.0 0.0 0.03 0.02 0.03 82 1000.1
20260506223452 83 185 0.0 0.0 0.03 0.02 0.03 82 1000.1
20260506223351 83 185 0.0 0.0 0.03 0.02 0.03 82 1000.1
20260506223252 83 185 0.0 0.0 0.03 0.02 0.03 82 1000.1
20260506223151 83 185 0.0 0.0 0.03 0.02 0.03 82 1000.1
20260506223052 83 185 0.0 0.0 0.03 0.02 0.03 82 1000.0
20260506222952 83 185 0.0 0.0 0.03 0.02 0.03 82 1000.0
20260506222854 83 185 0.0 0.0 0.03 0.02 0.03 82 1000.0
20260506222751 83 185 0.0 0.0 0.03 0.02 0.03 82 1000.0
20260506222651 83 185 0.0 0.0 0.03 0.02 0.03 81 1000.0
20260506222551 83 185 0.0 0.0 0.03 0.02 0.03 81 999.9
20260506222453 83 185 0.0 0.0 0.03 0.02 0.03 81 1000.0
20260506222351 83 185 0.0 0.0 0.03 0.02 0.03 81 1000.1
20260506222251 83 185 0.0 0.0 0.03 0.02 0.03 81 1000.0
20260506222151 83 185 0.0 0.0 0.03 0.02 0.02 81 1000.1
20260506222052 83 185 0.0 0.0 0.02 0.02 0.02 81 1000.1
20260506221951 83 185 0.0 0.0 0.02 0.02 0.02 81 1000.0
20260506221851 83 185 0.0 0.0 0.02 0.02 0.02 81 1000.0
20260506221752 83 185 0.0 0.0 0.02 0.02 0.02 81 1000.0
20260506221651 83 185 0.0 0.0 0.02 0.02 0.02 81 999.9
20260506221551 83 185 0.0 0.0 0.02 0.02 0.02 81 1000.0
20260506221451 83 185 0.0 0.0 0.02 0.02 0.02 81 999.9
20260506221350 84 185 0.0 0.0 0.02 0.02 0.02 81 999.9
20260506221251 84 185 0.0 0.0 0.02 0.02 0.02 81 1000.0
20260506221157 84 185 0.0 0.0 0.02 0.02 0.02 80 999.9
20260506221050 84 185 0.0 0.0 0.02 0.02 0.02 80 999.9
20260506220951 84 185 0.0 0.0 0.02 0.02 0.02 80 999.9
20260506220850 84 185 0.0 0.0 0.02 0.02 0.02 80 1000.0
20260506220751 84 185 0.0 0.0 0.02 0.02 0.02 80 999.9
20260506220655 84 185 0.0 0.0 0.02 0.02 0.02 80 1000.0
20260506220551 84 185 0.0 0.0 0.02 0.02 0.02 80 999.9
20260506220450 84 185 0.0 0.0 0.02 0.02 0.02 80 999.9
20260506220351 84 185 0.0 0.0 0.02 0.02 0.02 80 1000.0
20260506220251 84 185 0.0 0.0 0.02 0.02 0.02 80 999.9
20260506220152 84 185 0.0 0.0 0.02 0.02 0.02 80 1000.0
20260506220053 84 185 0.0 0.0 0.02 0.02 0.02 80 999.9
20260506215952 84 185 0.0 0.0 0.02 0.00 0.02 79 999.9
20260506215851 84 185 0.0 0.0 0.02 0.00 0.02 79 999.9
20260506215750 84 185 0.0 0.0 0.02 0.00 0.02 79 999.9
20260506215652 84 185 0.0 0.0 0.01 0.00 0.01 79 999.9
20260506215551 84 185 0.0 0.0 0.01 0.00 0.00 79 1000.0
20260506215450 84 185 0.0 0.0 0.00 0.00 0.00 79 999.9
20260506215351 84 185 0.0 0.0 0.00 0.00 0.00 79 999.9
20260506215251 84 185 0.0 0.0 0.00 0.00 0.00 79 999.9
20260506215150 84 185 0.0 0.0 0.00 0.00 0.00 79 999.9
20260506215051 84 185 0.0 0.0 0.00 0.00 0.00 79 1000.0
20260506214951 84 185 0.0 0.0 0.00 0.00 0.00 79 999.9
20260506214852 84 185 0.0 0.0 0.00 0.00 0.00 79 999.9
20260506214752 84 185 0.0 0.0 0.00 0.00 0.00 79 999.9
20260506214650 84 185 0.0 0.0 0.00 0.00 0.00 79 999.9
20260506214551 84 185 0.0 0.0 0.00 0.00 0.00 79 999.9
20260506214451 84 185 0.0 0.0 0.00 0.00 0.00 79 999.9
20260506214352 84 185 0.0 0.0 0.00 0.00 0.00 79 999.8
20260506214251 84 185 0.0 0.0 0.00 0.00 0.00 79 999.9
20260506214151 84 185 0.0 0.0 0.00 0.00 0.00 79 999.9
20260506214052 84 185 0.0 0.0 0.00 0.00 0.00 79 999.9
20260506213950 84 185 0.0 0.0 0.00 0.00 0.00 79 999.9
20260506213852 84 185 0.0 0.0 0.00 0.00 0.00 79 1000.0
20260506213750 84 185 0.0 0.0 0.00 0.00 0.00 79 1000.0
20260506213651 84 185 0.0 0.0 0.00 0.00 0.00 79 1000.0
20260506213555 84 185 0.0 0.0 0.00 0.00 0.00 78 1000.0
20260506213452 84 185 0.0 0.0 0.00 0.00 0.00 78 1000.0
20260506213350 84 185 0.0 0.0 0.00 0.00 0.00 78 1000.1
20260506213250 84 185 0.0 0.0 0.00 0.00 0.00 78 1000.0
20260506213151 84 185 0.0 0.0 0.00 0.00 0.00 78 1000.0
20260506213050 84 185 0.0 0.0 0.00 0.00 0.00 78 1000.0
20260506212951 84 185 0.0 0.0 0.00 0.00 0.00 78 1000.0
20260506212852 84 185 0.0 0.0 0.00 0.00 0.00 78 999.9
20260506212752 84 185 0.0 0.0 0.00 0.00 0.00 78 1000.0
20260506212649 84 185 0.0 0.0 0.00 0.00 0.00 78 1000.0
20260506212551 84 185 0.0 0.0 0.00 0.00 0.00 78 1000.0
20260506212450 84 185 0.0 0.0 0.00 0.00 0.00 78 1000.1
20260506212350 84 185 0.0 0.0 0.00 0.00 0.00 78 999.8
20260506212250 84 185 0.0 0.0 0.00 0.00 0.00 78 999.9
20260506212149 84 185 0.0 0.0 0.00 0.00 0.00 78 1000.0
20260506212052 84 185 0.0 0.0 0.00 0.00 0.00 78 1000.0
20260506211950 84 185 0.0 0.0 0.00 0.00 0.00 78 1000.0
20260506211850 84 185 0.0 0.0 0.00 0.00 0.00 78 1000.0
20260506211751 84 185 0.0 1.0 0.00 0.00 0.00 78 1000.0
20260506211651 84 185 0.0 1.0 0.00 0.00 0.00 78 1000.1
20260506211550 84 185 0.0 1.0 0.00 0.00 0.00 79 1000.1
20260506211451 84 185 0.0 1.0 0.00 0.00 0.00 79 1000.1
20260506211351 84 185 0.0 1.0 0.00 0.00 0.00 79 1000.0
20260506211249 84 185 0.0 1.0 0.00 0.00 0.00 78 1000.0
20260506211150 84 185 0.0 1.0 0.00 0.00 0.00 78 999.9
20260506211052 84 185 0.0 1.0 0.00 0.00 0.00 79 1000.0
20260506210949 84 185 0.0 1.0 0.00 0.00 0.00 79 999.9
20260506210852 84 185 0.0 1.0 0.00 0.00 0.00 79 1000.0
20260506210749 84 189 0.0 1.0 0.00 0.00 0.00 79 1000.0
20260506210650 84 189 0.0 1.0 0.00 0.00 0.00 79 1000.1
20260506210551 84 189 0.0 1.0 0.00 0.00 0.00 79 1000.1
20260506210450 84 189 0.0 1.0 0.00 0.00 0.00 79 1000.1
20260506210349 83 189 0.0 1.0 0.00 0.00 0.00 79 1000.0
20260506210249 83 189 0.0 1.0 0.00 0.00 0.00 79 1000.1
20260506210151 83 189 0.0 1.0 0.00 0.00 0.00 79 1000.1
20260506210049 84 189 0.0 1.0 0.00 0.00 0.00 78 1000.1
20260506205951 84 189 0.0 1.0 0.00 0.00 0.00 79 1000.1
20260506205851 84 189 1.0 2.0 0.00 0.00 0.00 79 1000.0
20260506205749 84 189 0.0 2.0 0.00 0.00 0.00 79 1000.0
20260506205649 84 188 0.0 2.0 0.00 0.00 0.00 80 1000.1
20260506205550 84 188 0.0 2.0 0.00 0.00 0.00 80 1000.0
20260506205449 84 189 0.0 2.0 0.00 0.00 0.00 80 1000.1
20260506205350 84 189 0.0 2.0 0.00 0.00 0.00 79 1000.1
20260506205249 84 189 0.0 2.0 0.00 0.00 0.00 79 1000.1
20260506205151 84 189 0.0 2.0 0.00 0.00 0.00 79 1000.1
20260506205049 84 189 0.0 2.0 0.00 0.00 0.00 79 1000.1
20260506204950 84 189 0.0 2.0 0.00 0.00 0.00 80 1000.2
20260506204851 84 190 0.0 1.0 0.00 0.00 0.00 80 1000.2
20260506204749 84 354 0.0 0.0 0.00 0.00 0.00 80 1000.2
20260506204652 84 354 0.0 1.0 0.00 0.00 0.00 79 1000.3
20260506204550 84 354 0.0 2.0 0.00 0.00 0.00 79 1000.3
20260506204450 84 354 0.0 2.0 0.00 0.00 0.00 79 1000.3
20260506204348 84 354 0.0 2.0 0.00 0.00 0.00 78 1000.4
20260506204249 84 354 0.0 2.0 0.00 0.00 0.00 78 1000.3
20260506204148 84 354 0.0 2.0 0.00 0.00 0.00 78 1000.3
20260506204049 84 354 0.0 2.0 0.00 0.00 0.00 78 1000.3
20260506203949 84 354 0.0 2.0 0.00 0.00 0.00 78 1000.3
20260506203849 84 354 0.0 2.0 0.00 0.00 0.00 78 1000.2
20260506203752 84 354 0.0 2.0 0.00 0.00 0.00 79 1000.2
20260506203652 84 354 0.0 2.0 0.00 0.00 0.00 79 1000.3
20260506203549 84 233 0.0 0.0 0.00 0.00 0.00 79 1000.2
20260506203449 84 233 0.0 0.0 0.00 0.00 0.00 79 1000.2
20260506203349 85 265 0.0 0.0 0.00 0.00 0.00 80 1000.2
20260506203248 85 265 0.0 1.0 0.00 0.00 0.00 80 1000.3
20260506203151 84 265 0.0 1.0 0.00 0.00 0.00 78 1000.2
20260506203051 84 265 0.0 1.0 0.00 0.00 0.00 78 1000.3
20260506202951 84 265 0.0 1.0 0.00 0.00 0.00 78 1000.3
20260506202849 85 265 0.0 1.0 0.00 0.00 0.00 78 1000.3
20260506202748 85 265 0.0 1.0 0.00 0.00 0.00 78 1000.3
20260506202648 84 265 0.0 1.0 0.00 0.00 0.00 78 1000.3
20260506202549 84 265 0.0 1.0 0.00 0.00 0.00 78 1000.3
20260506202448 84 265 0.0 2.0 0.00 0.00 0.00 79 1000.3
20260506202351 84 265 0.0 2.0 0.00 0.00 0.00 79 1000.2
20260506202248 84 252 0.0 2.0 0.00 0.00 0.00 79 1000.3
20260506202148 84 252 0.0 2.0 0.00 0.00 0.00 79 1000.3
20260506202048 84 252 0.0 2.0 0.00 0.00 0.00 79 1000.3
20260506201949 84 252 0.0 2.0 0.00 0.00 0.00 79 1000.2
20260506201849 83 158 0.0 2.0 0.00 0.00 0.00 79 1000.3
20260506201748 83 138 0.0 2.0 0.00 0.00 0.00 79 1000.3
20260506201650 83 138 0.0 2.0 0.00 0.00 0.00 81 1000.2
20260506201547 83 138 1.0 2.0 0.00 0.00 0.00 81 1000.3
20260506201440 83 138 0.0 2.0 0.00 0.00 0.00 81 1000.3
20260506201338 83 252 0.0 0.0 0.00 0.00 0.00 82 1000.4
20260506201234 83 252 0.0 0.0 0.00 0.00 0.00 82 1000.4
20260506201133 83 252 0.0 0.0 0.00 0.00 0.00 82 1000.4
20260506201031 83 252 0.0 0.0 0.00 0.00 0.00 82 1000.5
20260506200930 83 252 0.0 0.0 0.00 0.00 0.00 82 1000.5
20260506200831 83 252 0.0 0.0 0.00 0.00 0.00 82 1000.5
20260506200733 83 252 0.0 0.0 0.00 0.00 0.00 82 1000.5
20260506200631 82 252 0.0 0.0 0.00 0.00 0.00 82 1000.5
20260506200533 82 252 0.0 0.0 0.00 0.00 0.00 82 1000.5
20260506200432 82 252 0.0 0.0 0.00 0.00 0.00 82 1000.5
20260506200331 82 252 0.0 0.0 0.00 0.00 0.00 82 1000.6
20260506200233 81 252 0.0 0.0 0.00 0.00 0.00 83 1000.6
20260506200132 81 252 0.0 0.0 0.00 0.00 0.00 83 1000.6
20260506200032 81 252 0.0 0.0 0.00 0.00 0.00 83 1000.6
20260506195932 81 252 0.0 0.0 0.00 0.00 0.00 83 1000.6
20260506195833 81 252 0.0 0.0 0.00 0.00 0.00 83 1000.7
20260506195732 81 252 0.0 0.0 0.00 0.00 0.00 83 1000.7
20260506195632 81 252 0.0 0.0 0.00 0.00 0.00 83 1000.8
20260506195533 80 252 0.0 0.0 0.00 0.00 0.00 84 1000.8
20260506195431 80 252 0.0 0.0 0.00 0.00 0.00 84 1000.8
20260506195333 80 252 0.0 0.0 0.00 0.00 0.00 84 1000.8
20260506195231 80 252 0.0 0.0 0.00 0.00 0.00 84 1000.9
20260506195133 80 252 0.0 0.0 0.00 0.00 0.00 84 1000.8
20260506195033 80 252 0.0 0.0 0.00 0.00 0.00 84 1000.8
20260506194932 80 252 0.0 0.0 0.00 0.00 0.00 84 1000.9
20260506194832 80 252 0.0 0.0 0.00 0.00 0.00 84 1001.0
20260506194733 80 252 0.0 0.0 0.00 0.00 0.00 84 1000.9
20260506194631 80 252 0.0 0.0 0.00 0.00 0.00 84 1001.0
20260506194532 80 252 0.0 0.0 0.00 0.00 0.00 84 1001.0
20260506194432 80 252 0.0 0.0 0.00 0.00 0.00 84 1000.9
20260506194331 80 252 0.0 0.0 0.00 0.00 0.00 84 1000.9
20260506194238 80 252 0.0 0.0 0.00 0.00 0.00 84 1001.0
20260506194133 80 252 0.0 0.0 0.00 0.00 0.00 84 1001.0
20260506194031 80 252 0.0 0.0 0.00 0.00 0.00 84 1001.0
20260506193932 80 252 0.0 0.0 0.00 0.00 0.00 84 1001.0
20260506193830 80 252 0.0 0.0 0.00 0.00 0.00 84 1001.1
20260506193732 80 252 0.0 0.0 0.00 0.00 0.00 84 1001.0
20260506193631 80 252 0.0 0.0 0.00 0.00 0.00 84 1001.0
20260506193533 80 252 0.0 0.0 0.00 0.00 0.00 84 1001.1
20260506193431 80 252 0.0 0.0 0.00 0.00 0.00 84 1001.0
20260506193331 80 252 0.0 0.0 0.00 0.00 0.00 84 1001.0
20260506193233 80 252 0.0 0.0 0.00 0.00 0.00 84 1001.0
20260506193131 80 252 0.0 0.0 0.00 0.00 0.00 84 1001.0
20260506193031 80 252 0.0 0.0 0.00 0.00 0.00 84 1001.0
20260506192932 80 252 0.0 0.0 0.00 0.00 0.00 84 1001.0
20260506192821 80 252 0.0 0.0 0.00 0.00 0.00 84 1001.0
20260506192718 80 252 0.0 0.0 0.00 0.00 0.00 84 1001.0
20260506192613 80 252 0.0 0.0 0.00 0.00 0.00 84 1001.0
20260506192513 80 252 0.0 0.0 0.00 0.00 0.00 84 1001.0
20260506192403 80 252 0.0 0.0 0.00 0.00 0.00 84 1001.0
20260506192305 80 252 0.0 0.0 0.00 0.00 0.00 83 1001.1
20260506192204 80 252 0.0 0.0 0.00 0.00 0.00 83 1001.0
20260506192104 80 252 0.0 0.0 0.00 0.00 0.00 83 1001.1
20260506192003 80 252 0.0 0.0 0.00 0.00 0.00 83 1001.1
20260506191903 80 252 0.0 0.0 0.00 0.00 0.00 83 1001.1
20260506191802 80 252 0.0 0.0 0.00 0.00 0.00 83 1001.1
20260506191703 80 252 0.0 0.0 0.00 0.00 0.00 83 1001.1
20260506191604 80 252 0.0 0.0 0.00 0.00 0.00 83 1001.1
20260506191504 80 252 0.0 0.0 0.00 0.00 0.00 83 1001.2
20260506191348 80 252 0.0 0.0 0.00 0.00 0.00 83 1001.1
20260506191248 80 252 0.0 0.0 0.00 0.00 0.00 83 1001.1
20260506191147 80 252 0.0 0.0 0.00 0.00 0.00 83 1001.0
20260506191047 80 252 0.0 0.0 0.00 0.00 0.00 83 1001.0
20260506190947 80 252 0.0 0.0 0.00 0.00 0.00 83 1001.0
20260506190848 80 252 0.0 0.0 0.00 0.00 0.00 83 1001.0
20260506190747 81 252 0.0 0.0 0.00 0.00 0.00 83 1001.1
20260506190646 81 252 0.0 0.0 0.00 0.00 0.00 83 1001.0
20260506190546 81 250 0.0 0.0 0.00 0.00 0.00 83 1001.1
20260506190447 81 250 0.0 0.0 0.00 0.00 0.00 83 1001.0
20260506190346 81 250 0.0 0.0 0.00 0.00 0.00 83 1001.1
20260506190247 81 250 0.0 0.0 0.00 0.00 0.00 83 1001.2
20260506190146 81 290 0.0 0.0 0.00 0.00 0.00 83 1001.2
20260506190046 81 290 0.0 0.0 0.00 0.00 0.00 83 1001.2
20260506185948 81 290 0.0 0.0 0.00 0.00 0.00 82 1001.1
20260506185847 81 0 0.0 0.0 0.00 0.00 0.00 82 1001.2
20260506185747 81 0 0.0 0.0 0.00 0.00 0.00 83 1001.1
20260506185647 81 0 0.0 0.0 0.00 0.00 0.00 83 1001.1
20260506185547 81 0 0.0 0.0 0.00 0.00 0.00 82 1001.2
20260506185447 81 0 0.0 0.0 0.00 0.00 0.00 82 1001.2
20260506185348 81 1 0.0 1.0 0.00 0.00 0.00 82 1001.2
20260506185247 81 128 0.0 1.0 0.00 0.00 0.00 82 1001.2
20260506185148 81 128 0.0 1.0 0.00 0.00 0.00 82 1001.1
20260506185046 81 128 0.0 1.0 0.00 0.00 0.00 82 1001.2
20260506184947 82 128 0.0 1.0 0.00 0.00 0.00 82 1001.2
20260506184846 82 135 0.0 1.0 0.00 0.00 0.00 82 1001.2
20260506184746 82 135 0.0 1.0 0.00 0.00 0.00 82 1001.2
20260506184646 82 135 0.0 1.0 0.00 0.00 0.00 82 1001.2
20260506184546 82 135 0.0 1.0 0.00 0.00 0.00 81 1001.3
20260506184448 82 135 0.0 1.0 0.00 0.00 0.00 81 1001.3
20260506184346 82 168 0.0 1.0 0.00 0.00 0.00 81 1001.3
20260506184246 83 172 0.0 1.0 0.00 0.00 0.00 81 1001.3
20260506184146 83 172 0.0 1.0 0.00 0.00 0.00 81 1001.2
20260506184047 83 172 0.0 1.0 0.00 0.00 0.00 81 1001.2
20260506183948 83 172 0.0 1.0 0.00 0.00 0.00 81 1001.2
20260506183846 82 172 0.0 1.0 0.00 0.00 0.00 81 1001.2
20260506183747 82 213 0.0 1.0 0.00 0.00 0.00 82 1001.2
20260506183657 82 213 0.0 0.0 0.00 0.00 0.00 82 1001.2
20260506183547 82 213 0.0 0.0 0.00 0.00 0.00 82 1001.3
20260506183447 82 230 0.0 0.0 0.00 0.00 0.00 82 1001.2
20260506183347 82 230 0.0 0.0 0.00 0.00 0.00 82 1001.2
20260506183246 82 230 0.0 0.0 0.00 0.00 0.00 82 1001.2
20260506183155 82 230 0.0 0.0 0.00 0.00 0.00 82 1001.2
20260506183046 81 230 0.0 0.0 0.00 0.00 0.00 83 1001.2
20260506182945 81 230 0.0 0.0 0.00 0.00 0.00 83 1001.2
20260506182845 81 230 0.0 0.0 0.00 0.00 0.00 83 1001.2
20260506182746 81 230 0.0 0.0 0.00 0.00 0.00 83 1001.3
20260506182647 81 230 0.0 0.0 0.00 0.00 0.00 83 1001.2
20260506182548 81 230 0.0 0.0 0.00 0.00 0.00 83 1001.4
20260506182447 81 230 0.0 0.0 0.00 0.00 0.00 83 1001.3
20260506182347 81 230 0.0 0.0 0.00 0.00 0.00 83 1001.3
20260506182245 81 230 0.0 0.0 0.00 0.00 0.00 83 1001.3
20260506182149 81 230 0.0 0.0 0.00 0.00 0.00 83 1001.4
20260506182045 81 230 0.0 0.0 0.00 0.00 0.00 83 1001.4
20260506181945 80 230 0.0 0.0 0.00 0.00 0.00 84 1001.4
20260506181847 80 230 0.0 0.0 0.00 0.00 0.00 84 1001.4
20260506181747 80 230 0.0 0.0 0.00 0.00 0.00 84 1001.4
20260506181649 80 230 0.0 0.0 0.00 0.00 0.00 84 1001.6
20260506181540 80 230 0.0 0.0 0.00 0.00 0.00 84 1001.5
20260506181434 80 230 0.0 0.0 0.00 0.00 0.00 84 1001.5
20260506181331 80 230 0.0 0.0 0.00 0.00 0.00 83 1001.6
20260506181233 80 230 0.0 0.0 0.00 0.00 0.00 83 1001.6
20260506181135 80 230 0.0 0.0 0.00 0.00 0.00 83 1001.6
20260506181033 80 230 0.0 0.0 0.00 0.00 0.00 84 1001.7
20260506180929 80 230 0.0 0.0 0.00 0.00 0.00 84 1001.7
20260506180827 80 230 0.0 0.0 0.00 0.00 0.00 84 1001.7
20260506180726 80 230 0.0 0.0 0.00 0.00 0.00 84 1001.7
20260506180623 80 230 0.0 0.0 0.00 0.00 0.00 84 1001.8
20260506180520 80 230 0.0 0.0 0.00 0.00 0.00 84 1001.8
20260506180420 80 230 0.0 0.0 0.00 0.00 0.00 84 1001.8
20260506180319 80 230 0.0 0.0 0.00 0.00 0.00 83 1001.9
20260506180217 80 230 0.0 0.0 0.00 0.00 0.00 83 1001.9
20260506180110 80 230 0.0 0.0 0.00 0.00 0.00 83 1001.9
20260506180007 80 230 0.0 0.0 0.00 0.00 0.00 83 1002.0
20260506175902 80 230 0.0 0.0 0.00 0.00 0.00 83 1002.0
20260506175802 80 230 0.0 0.0 0.00 0.00 0.00 83 1002.1
20260506175702 80 230 0.0 0.0 0.00 0.00 0.00 83 1002.0
20260506175603 80 230 0.0 0.0 0.00 0.00 0.00 83 1002.1
20260506175502 80 230 0.0 0.0 0.00 0.00 0.00 83 1002.1
20260506175402 80 230 0.0 0.0 0.00 0.00 0.00 83 1002.1
20260506175306 80 230 0.0 0.0 0.00 0.00 0.00 83 1002.1
20260506175202 80 230 0.0 0.0 0.00 0.00 0.00 83 1002.2
20260506175102 80 230 0.0 0.0 0.00 0.00 0.00 83 1002.2
20260506175003 80 230 0.0 0.0 0.00 0.00 0.00 83 1002.2
20260506174904 80 230 0.0 0.0 0.00 0.00 0.00 83 1002.2
20260506174802 80 230 0.0 0.0 0.00 0.00 0.00 83 1002.1
20260506174704 80 230 0.0 0.0 0.00 0.00 0.00 83 1002.2
20260506174603 80 230 0.0 0.0 0.00 0.00 0.00 83 1002.2
20260506174503 80 230 0.0 0.0 0.00 0.00 0.00 83 1002.3
20260506174403 80 230 0.0 0.0 0.00 0.00 0.00 83 1002.4
20260506174302 80 230 0.0 0.0 0.00 0.00 0.00 83 1002.3
20260506174203 80 230 0.0 0.0 0.00 0.00 0.00 83 1002.4
20260506174102 80 230 0.0 0.0 0.00 0.00 0.00 83 1002.3
20260506174002 80 230 0.0 0.0 0.00 0.00 0.00 83 1002.3
20260506173904 80 230 0.0 0.0 0.00 0.00 0.00 83 1002.3
20260506173802 80 230 0.0 0.0 0.00 0.00 0.00 83 1002.4
20260506173703 80 230 0.0 0.0 0.00 0.00 0.00 83 1002.5
20260506173603 80 230 0.0 0.0 0.00 0.00 0.00 83 1002.5
20260506173503 80 230 0.0 0.0 0.00 0.00 0.00 83 1002.5
20260506173403 80 230 0.0 0.0 0.00 0.00 0.00 83 1002.6
20260506173304 80 230 0.0 0.0 0.00 0.00 0.00 83 1002.5
20260506173202 80 230 0.0 0.0 0.00 0.00 0.00 83 1002.5
20260506173102 80 230 0.0 0.0 0.00 0.00 0.00 83 1002.6
20260506173003 80 230 0.0 0.0 0.00 0.00 0.00 83 1002.6
20260506172902 80 230 0.0 0.0 0.00 0.00 0.00 83 1002.6
20260506172802 80 230 0.0 0.0 0.00 0.00 0.00 83 1002.6
20260506172704 80 230 0.0 0.0 0.00 0.00 0.00 83 1002.5
20260506172603 80 230 0.0 0.0 0.00 0.00 0.00 83 1002.6
20260506172503 80 230 0.0 0.0 0.00 0.00 0.00 84 1002.6
20260506172402 80 230 0.0 0.0 0.00 0.00 0.00 84 1002.7
20260506172306 80 230 0.0 0.0 0.00 0.00 0.00 83 1002.7
20260506172203 80 230 0.0 0.0 0.00 0.00 0.00 83 1002.7
20260506172105 80 230 0.0 0.0 0.00 0.00 0.00 84 1002.7
20260506172002 80 230 0.0 0.0 0.00 0.00 0.00 84 1002.6
20260506171903 80 230 0.0 0.0 0.00 0.00 0.00 84 1002.6
20260506171802 80 230 0.0 0.0 0.00 0.00 0.00 84 1002.7
20260506171702 80 230 0.0 0.0 0.00 0.00 0.00 83 1002.6
20260506171602 80 230 0.0 0.0 0.00 0.00 0.00 83 1002.6
20260506171502 80 230 0.0 0.0 0.00 0.00 0.00 83 1002.6
20260506171403 80 230 0.0 0.0 0.00 0.00 0.00 83 1002.7
20260506171304 80 230 0.0 0.0 0.00 0.00 0.00 83 1002.7
20260506171203 80 230 0.0 0.0 0.00 0.00 0.00 83 1002.6
20260506171102 80 230 0.0 0.0 0.00 0.00 0.00 83 1002.5
20260506171003 80 230 0.0 0.0 0.00 0.00 0.00 83 1002.6
20260506170902 80 230 0.0 0.0 0.00 0.00 0.00 83 1002.6
20260506170802 80 230 0.0 0.0 0.00 0.00 0.00 83 1002.6
20260506170703 80 230 0.0 0.0 0.00 0.00 0.00 83 1002.6
20260506170603 80 230 0.0 0.0 0.00 0.00 0.00 83 1002.6
20260506170501 80 230 0.0 0.0 0.00 0.00 0.00 83 1002.6
20260506170402 80 230 0.0 0.0 0.00 0.00 0.00 83 1002.6
20260506170301 80 230 0.0 0.0 0.00 0.00 0.00 84 1002.7
20260506170202 80 230 0.0 0.0 0.00 0.00 0.00 84 1002.7
20260506170103 80 230 0.0 0.0 0.00 0.00 0.00 84 1002.6
20260506170002 80 230 0.0 0.0 0.00 0.00 0.00 84 1002.7
20260506165902 80 230 0.0 0.0 0.00 0.00 0.00 84 1002.7
20260506165803 80 230 0.0 0.0 0.00 0.00 0.00 83 1002.8
20260506165702 80 230 0.0 0.0 0.00 0.00 0.00 83 1002.7
20260506165602 80 230 0.0 0.0 0.00 0.00 0.00 83 1002.8
20260506165503 80 230 0.0 0.0 0.00 0.00 0.00 83 1002.8
20260506165404 80 230 0.0 0.0 0.00 0.00 0.00 83 1002.7
20260506165257 80 230 0.0 0.0 0.00 0.00 0.00 83 1002.7
20260506165156 80 230 0.0 0.0 0.00 0.00 0.00 83 1002.7
20260506165052 80 230 0.0 0.0 0.00 0.00 0.00 83 1002.6
20260506164952 80 230 0.0 0.0 0.00 0.00 0.00 83 1002.7
20260506164849 80 230 0.0 0.0 0.00 0.00 0.00 83 1002.7
20260506164745 80 230 0.0 0.0 0.00 0.00 0.00 83 1002.6
20260506164646 80 230 0.0 0.0 0.00 0.00 0.00 83 1002.7
20260506164544 80 230 0.0 0.0 0.00 0.00 0.00 83 1002.7
20260506164441 80 230 0.0 0.0 0.00 0.00 0.00 83 1002.7
20260506164331 80 230 0.0 0.0 0.00 0.00 0.00 83 1002.7
20260506164230 80 230 0.0 0.0 0.00 0.00 0.00 83 1002.8
20260506164131 80 230 0.0 0.0 0.00 0.00 0.00 83 1002.7
20260506164032 80 230 0.0 0.0 0.00 0.00 0.00 83 1002.7
20260506163931 80 230 0.0 0.0 0.00 0.00 0.00 83 1002.8
20260506163830 80 230 0.0 0.0 0.00 0.00 0.00 83 1002.8
20260506163728 80 230 0.0 0.0 0.00 0.00 0.00 83 1002.7
20260506163629 80 230 0.0 0.0 0.00 0.00 0.00 83 1002.6
20260506163526 80 230 0.0 0.0 0.00 0.00 0.00 83 1002.5
20260506163417 80 230 0.0 0.0 0.00 0.00 0.00 83 1002.5
20260506163314 80 230 0.0 0.0 0.00 0.00 0.00 83 1002.5
20260506163209 80 230 0.0 0.0 0.00 0.00 0.00 82 1002.5
20260506163104 80 230 0.0 0.0 0.00 0.00 0.00 83 1002.6
20260506163002 80 230 0.0 0.0 0.00 0.00 0.00 83 1002.5
20260506162903 80 230 0.0 0.0 0.00 0.00 0.00 83 1002.5
20260506162803 80 230 0.0 0.0 0.00 0.00 0.00 83 1002.5
20260506162704 80 230 0.0 0.0 0.00 0.00 0.00 83 1002.5
20260506162602 80 230 0.0 0.0 0.00 0.00 0.00 83 1002.6
20260506162502 80 230 0.0 0.0 0.00 0.00 0.00 83 1002.6
20260506162402 80 230 0.0 0.0 0.00 0.00 0.00 83 1002.5
20260506162306 80 230 0.0 0.0 0.00 0.00 0.00 83 1002.5
20260506162204 80 230 0.0 0.0 0.00 0.00 0.00 84 1002.4
20260506162104 80 230 0.0 0.0 0.00 0.00 0.00 84 1002.5
20260506162004 80 230 0.0 0.0 0.00 0.00 0.00 84 1002.4
20260506161902 80 230 0.0 0.0 0.00 0.00 0.00 84 1002.4
20260506161804 80 230 0.0 0.0 0.00 0.00 0.00 84 1002.4
20260506161702 80 230 0.0 0.0 0.00 0.00 0.00 84 1002.4
20260506161602 80 230 0.0 0.0 0.00 0.00 0.00 84 1002.3
20260506161457 80 230 0.0 0.0 0.00 0.00 0.00 84 1002.3
20260506161356 80 230 0.0 0.0 0.00 0.00 0.00 84 1002.3
20260506161254 80 230 0.0 0.0 0.00 0.00 0.00 84 1002.3
20260506161144 80 230 0.0 0.0 0.00 0.00 0.00 84 1002.3
20260506161043 80 230 0.0 0.0 0.00 0.00 0.00 84 1002.3
20260506160942 80 230 0.0 0.0 0.00 0.00 0.00 84 1002.2
20260506160843 80 230 0.0 0.0 0.00 0.00 0.00 84 1002.3
20260506160744 80 230 0.0 0.0 0.00 0.00 0.00 84 1002.3
20260506160644 80 230 0.0 0.0 0.00 0.00 0.00 84 1002.1
20260506160543 80 230 0.0 0.0 0.00 0.00 0.00 84 1002.2
20260506160442 80 230 0.0 0.0 0.00 0.00 0.00 84 1002.2
20260506160343 80 230 0.0 0.0 0.00 0.00 0.00 84 1002.2
20260506160242 80 230 0.0 0.0 0.00 0.00 0.00 84 1002.2
20260506160142 80 230 0.0 0.0 0.00 0.00 0.00 84 1002.2
20260506160042 80 230 0.0 0.0 0.00 0.00 0.00 84 1002.2
20260506155943 80 230 0.0 0.0 0.00 0.00 0.00 84 1002.3
20260506155844 80 230 0.0 0.0 0.00 0.00 0.00 84 1002.2
20260506155744 80 230 0.0 0.0 0.00 0.00 0.00 84 1002.2
20260506155643 80 230 0.0 0.0 0.00 0.00 0.00 84 1002.2
20260506155544 80 230 0.0 0.0 0.00 0.00 0.00 84 1002.1
20260506155444 80 230 0.0 0.0 0.00 0.00 0.00 84 1002.1
20260506155342 80 230 0.0 0.0 0.00 0.00 0.00 84 1002.0
20260506155243 80 230 0.0 0.0 0.00 0.00 0.00 84 1002.0
20260506155143 80 230 0.0 0.0 0.00 0.00 0.00 84 1002.0
20260506155043 80 230 0.0 0.0 0.00 0.00 0.00 84 1002.0
20260506154942 80 230 0.0 0.0 0.00 0.00 0.00 84 1001.9
20260506154842 80 230 0.0 0.0 0.00 0.00 0.00 84 1001.9
20260506154743 80 230 0.0 0.0 0.00 0.00 0.00 84 1001.9
20260506154644 80 230 0.0 0.0 0.00 0.00 0.00 84 1001.9
20260506154543 80 230 0.0 0.0 0.00 0.00 0.00 84 1001.9
20260506154443 80 230 0.0 0.0 0.00 0.00 0.00 84 1001.9
20260506154344 79 230 0.0 0.0 0.00 0.00 0.00 84 1001.9
20260506154243 79 230 0.0 0.0 0.00 0.00 0.00 84 1001.9
20260506154142 79 230 0.0 0.0 0.00 0.00 0.00 84 1001.9
20260506154042 79 230 0.0 0.0 0.00 0.00 0.00 85 1001.8
20260506153944 79 230 0.0 0.0 0.00 0.00 0.00 85 1001.8
20260506153844 79 230 0.0 0.0 0.00 0.00 0.00 85 1002.0
20260506153743 79 230 0.0 0.0 0.00 0.00 0.00 85 1001.9
20260506153643 79 230 0.0 0.0 0.00 0.00 0.00 85 1002.0
20260506153543 79 230 0.0 0.0 0.00 0.00 0.00 86 1002.0
20260506153442 79 230 0.0 0.0 0.00 0.00 0.00 86 1002.0
20260506153343 79 230 0.0 0.0 0.00 0.00 0.00 85 1002.0
20260506153243 79 230 0.0 0.0 0.00 0.00 0.00 86 1002.0
20260506153142 79 230 0.0 0.0 0.00 0.00 0.00 86 1001.9
20260506153043 79 230 0.0 0.0 0.00 0.00 0.00 86 1001.9
20260506152944 79 230 0.0 0.0 0.00 0.00 0.00 86 1001.9
20260506152842 79 230 0.0 0.0 0.00 0.00 0.00 86 1001.9
20260506152743 78 230 0.0 0.0 0.00 0.00 0.00 87 1001.9
20260506152642 78 228 0.0 0.0 0.00 0.00 0.00 87 1001.9
20260506152542 78 228 0.0 0.0 0.00 0.00 0.00 87 1001.9
20260506152443 78 228 0.0 0.0 0.00 0.00 0.00 87 1001.9
20260506152342 78 228 0.0 0.0 0.00 0.00 0.00 88 1001.9
20260506152242 78 228 0.0 0.0 0.00 0.00 0.00 88 1001.9
20260506152143 78 228 0.0 0.0 0.00 0.00 0.00 88 1002.0
20260506152041 78 228 0.0 0.0 0.00 0.00 0.00 88 1002.0
20260506151942 78 228 0.0 0.0 0.00 0.00 0.00 88 1002.0
20260506151843 78 228 0.0 0.0 0.00 0.00 0.00 88 1002.1
20260506151742 78 228 0.0 0.0 0.00 0.00 0.00 88 1002.1
20260506151643 78 228 0.0 0.0 0.00 0.00 0.00 88 1002.1
20260506151543 78 228 0.0 0.0 0.00 0.00 0.00 88 1002.1
20260506151441 78 228 0.0 0.0 0.00 0.00 0.00 88 1002.1
20260506151342 78 228 0.0 0.0 0.00 0.00 0.00 88 1002.0
20260506151243 78 228 0.0 0.0 0.00 0.00 0.00 88 1002.1
20260506151143 78 228 0.0 0.0 0.00 0.00 0.00 88 1002.1
20260506151043 78 228 0.0 0.0 0.00 0.00 0.00 88 1002.1
20260506150941 78 228 0.0 0.0 0.00 0.00 0.00 88 1002.2
20260506150842 78 228 0.0 0.0 0.00 0.00 0.00 88 1002.2
20260506150743 78 228 0.0 0.0 0.00 0.00 0.00 88 1002.1
20260506150641 78 228 0.0 0.0 0.00 0.00 0.00 88 1002.1
20260506150543 78 228 0.0 0.0 0.00 0.00 0.00 88 1002.1
20260506150442 78 228 0.0 0.0 0.00 0.00 0.00 88 1002.0
20260506150341 78 228 0.0 0.0 0.00 0.00 0.00 88 1002.0
20260506150242 78 228 0.0 0.0 0.00 0.00 0.00 88 1002.1
20260506150141 78 228 0.0 0.0 0.00 0.00 0.00 88 1002.0
20260506150042 78 228 0.0 0.0 0.00 0.00 0.00 88 1002.0
20260506145941 78 228 0.0 0.0 0.00 0.00 0.00 89 1002.0
20260506145843 78 228 0.0 0.0 0.00 0.00 0.00 89 1001.9
20260506145742 78 227 0.0 0.0 0.00 0.00 0.00 89 1001.8
20260506145642 78 227 0.0 0.0 0.00 0.00 0.00 89 1001.8
20260506145542 78 227 0.0 0.0 0.00 0.00 0.00 89 1001.7
20260506145441 78 227 0.0 0.0 0.00 0.00 0.00 88 1001.7
20260506145341 77 227 0.0 0.0 0.00 0.00 0.00 88 1001.6
20260506145241 77 227 0.0 0.0 0.00 0.00 0.00 88 1001.5
20260506145143 77 227 0.0 0.0 0.00 0.00 0.00 88 1001.6
20260506145042 77 227 0.0 0.0 0.00 0.00 0.00 88 1001.5
20260506144942 77 227 0.0 0.0 0.00 0.00 0.00 88 1001.5
20260506144842 77 227 0.0 0.0 0.00 0.00 0.00 88 1001.5
20260506144741 77 227 0.0 0.0 0.00 0.00 0.00 88 1001.5
20260506144642 77 227 0.0 0.0 0.00 0.00 0.00 89 1001.6
20260506144536 77 227 0.0 0.0 0.00 0.00 0.00 89 1001.6
20260506144437 77 227 0.0 0.0 0.00 0.00 0.00 89 1001.6
20260506144330 77 227 0.0 0.0 0.00 0.00 0.00 89 1001.6
20260506144230 77 227 0.0 0.0 0.00 0.00 0.00 89 1001.6
20260506144131 77 227 0.0 0.0 0.00 0.00 0.00 89 1001.6
20260506144032 77 227 0.0 0.0 0.00 0.00 0.00 89 1001.5
20260506143930 77 227 0.0 0.0 0.00 0.00 0.00 89 1001.5
20260506143831 77 227 0.0 0.0 0.00 0.00 0.00 89 1001.5
20260506143731 77 227 0.0 0.0 0.00 0.00 0.00 89 1001.5
20260506143631 77 227 0.0 0.0 0.00 0.00 0.00 89 1001.5
20260506143531 77 227 0.0 0.0 0.00 0.00 0.00 89 1001.5
20260506143432 77 227 0.0 0.0 0.00 0.00 0.00 89 1001.5
20260506143332 77 227 0.0 0.0 0.00 0.00 0.00 89 1001.5
20260506143232 77 227 0.0 0.0 0.00 0.00 0.00 89 1001.5
20260506143131 77 227 0.0 0.0 0.00 0.00 0.00 89 1001.4
20260506143030 77 227 0.0 0.0 0.00 0.00 0.00 89 1001.5
20260506142932 77 227 0.0 0.0 0.00 0.00 0.00 89 1001.4
20260506142832 77 227 0.0 0.0 0.00 0.00 0.00 89 1001.3
20260506142731 77 227 0.0 0.0 0.00 0.00 0.00 89 1001.3
20260506142632 77 227 0.0 0.0 0.00 0.00 0.00 89 1001.3
20260506142532 77 227 0.0 0.0 0.00 0.00 0.00 89 1001.3
20260506142431 77 227 0.0 0.0 0.00 0.00 0.00 89 1001.3
20260506142332 77 227 0.0 0.0 0.00 0.00 0.00 89 1001.3
20260506142232 77 10 0.0 0.0 0.00 0.00 0.00 89 1001.3
20260506142130 77 10 0.0 0.0 0.00 0.00 0.00 89 1001.3
20260506142032 77 10 0.0 0.0 0.00 0.00 0.00 89 1001.3
20260506141932 77 10 0.0 0.0 0.00 0.00 0.00 89 1001.3
20260506141832 76 10 0.0 0.0 0.00 0.00 0.00 89 1001.3
20260506141731 76 10 0.0 0.0 0.00 0.00 0.00 89 1001.3
20260506141631 76 10 0.0 0.0 0.00 0.00 0.00 89 1001.3
20260506141531 76 10 0.0 0.0 0.00 0.00 0.00 89 1001.3
20260506141432 76 10 0.0 0.0 0.00 0.00 0.00 89 1001.2
20260506141331 76 10 0.0 0.0 0.00 0.00 0.00 89 1001.3
20260506141233 76 10 0.0 0.0 0.00 0.00 0.00 89 1001.3
20260506141132 76 10 0.0 0.0 0.00 0.00 0.00 89 1001.3
20260506141031 76 10 0.0 0.0 0.00 0.00 0.00 89 1001.2
20260506140931 76 10 0.0 0.0 0.00 0.00 0.00 89 1001.3
20260506140833 76 10 0.0 0.0 0.00 0.00 0.00 89 1001.3
20260506140729 76 10 0.0 0.0 0.00 0.00 0.00 89 1001.3
20260506140619 76 10 0.0 0.0 0.00 0.00 0.00 89 1001.3
20260506140510 76 10 0.0 0.0 0.00 0.00 0.00 89 1001.3
20260506140409 76 10 0.0 0.0 0.00 0.00 0.00 89 1001.3
20260506140308 76 10 0.0 0.0 0.00 0.00 0.00 89 1001.3
20260506140203 76 10 0.0 0.0 0.00 0.00 0.00 89 1001.3
20260506140105 76 10 0.0 0.0 0.00 0.00 0.00 89 1001.3
20260506140003 76 10 0.0 0.0 0.00 0.00 0.00 89 1001.3
20260506135904 76 10 0.0 0.0 0.00 0.00 0.00 89 1001.4
20260506135803 76 10 0.0 0.0 0.00 0.00 0.00 89 1001.3
20260506135703 76 10 0.0 0.0 0.00 0.00 0.00 89 1001.4
20260506135602 76 10 0.0 0.0 0.00 0.00 0.00 89 1001.4
20260506135503 76 10 0.0 0.0 0.00 0.00 0.00 89 1001.4
20260506135402 76 10 0.0 0.0 0.00 0.00 0.00 89 1001.4
20260506135306 76 10 0.0 0.0 0.00 0.00 0.00 89 1001.4
20260506135202 76 10 0.0 0.0 0.00 0.00 0.00 89 1001.4
20260506135102 76 10 0.0 0.0 0.00 0.00 0.00 89 1001.4
20260506135004 76 10 0.0 0.0 0.00 0.00 0.00 89 1001.4
20260506134902 76 10 0.0 0.0 0.00 0.00 0.00 89 1001.3
20260506134803 76 10 0.0 0.0 0.00 0.00 0.00 89 1001.5
20260506134703 76 10 0.0 0.0 0.00 0.00 0.00 88 1001.4
20260506134602 76 10 0.0 0.0 0.00 0.00 0.00 88 1001.5
20260506134503 76 10 0.0 0.0 0.00 0.00 0.00 88 1001.4
20260506134403 76 24 0.0 0.0 0.00 0.00 0.00 88 1001.4
20260506134303 76 24 0.0 1.0 0.00 0.00 0.00 88 1001.5
20260506134202 76 24 0.0 1.0 0.00 0.00 0.00 88 1001.6
20260506134104 76 24 0.0 1.0 0.00 0.00 0.00 88 1001.5
20260506134002 76 24 0.0 1.0 0.00 0.00 0.00 88 1001.6
20260506133901 75 24 0.0 1.0 0.00 0.00 0.00 88 1001.6
20260506133802 75 24 0.0 1.0 0.00 0.00 0.00 88 1001.6
20260506133702 75 24 0.0 1.0 0.00 0.00 0.00 88 1001.6
20260506133604 75 24 0.0 1.0 0.00 0.00 0.00 88 1001.6
20260506133504 75 24 0.0 1.0 0.00 0.00 0.00 88 1001.5
20260506133402 75 24 0.0 1.0 0.00 0.00 0.00 88 1001.5
20260506133302 75 24 0.0 1.0 0.00 0.00 0.00 88 1001.5
20260506133202 75 259 0.0 0.0 0.00 0.00 0.00 88 1001.5
20260506133103 75 259 0.0 0.0 0.00 0.00 0.00 88 1001.5
20260506133002 75 259 0.0 0.0 0.00 0.00 0.00 88 1001.5
20260506132902 75 259 0.0 0.0 0.00 0.00 0.00 88 1001.5
20260506132803 75 259 0.0 0.0 0.00 0.00 0.00 88 1001.5
20260506132703 75 259 0.0 0.0 0.00 0.00 0.00 88 1001.5
20260506132602 75 259 0.0 0.0 0.00 0.00 0.00 88 1001.6
20260506132503 75 259 0.0 0.0 0.00 0.00 0.00 88 1001.6
20260506132403 75 259 0.0 0.0 0.00 0.00 0.00 88 1001.6
20260506132305 75 259 0.0 0.0 0.00 0.00 0.00 88 1001.7
20260506132203 75 259 0.0 0.0 0.00 0.00 0.00 88 1001.7
20260506132102 75 259 0.0 0.0 0.00 0.00 0.00 88 1001.7
20260506132002 75 259 0.0 0.0 0.00 0.00 0.00 88 1001.7
20260506131903 75 259 0.0 0.0 0.00 0.00 0.00 88 1001.6
20260506131802 75 259 0.0 0.0 0.00 0.00 0.00 88 1001.7
20260506131703 75 259 0.0 0.0 0.00 0.00 0.00 88 1001.6
20260506131602 75 259 0.0 0.0 0.00 0.00 0.00 88 1001.6
20260506131503 75 259 0.0 0.0 0.00 0.00 0.00 88 1001.6
20260506131402 75 259 0.0 0.0 0.00 0.00 0.00 88 1001.5
20260506131302 75 259 0.0 0.0 0.00 0.00 0.00 88 1001.5
20260506131202 75 259 0.0 0.0 0.00 0.00 0.00 88 1001.6
20260506131102 75 259 0.0 0.0 0.00 0.00 0.00 88 1001.5
20260506131002 75 259 0.0 0.0 0.00 0.00 0.00 88 1001.5
20260506130902 75 259 0.0 0.0 0.00 0.00 0.00 88 1001.5
20260506130804 75 259 0.0 1.0 0.00 0.00 0.00 88 1001.6
20260506130702 75 259 0.0 1.0 0.00 0.00 0.00 88 1001.5
20260506130602 75 259 0.0 1.0 0.00 0.00 0.00 88 1001.5
20260506130502 75 259 0.0 1.0 0.00 0.00 0.00 88 1001.5
20260506130402 75 259 0.0 1.0 0.00 0.00 0.00 88 1001.6
20260506130302 75 259 0.0 1.0 0.00 0.00 0.00 88 1001.5
20260506130203 75 259 0.0 1.0 0.00 0.00 0.00 88 1001.5
20260506130104 75 259 0.0 1.0 0.00 0.00 0.00 88 1001.6
20260506130003 75 259 0.0 1.0 0.00 0.00 0.00 88 1001.6
20260506125904 75 259 0.0 1.0 0.00 0.00 0.00 88 1001.6
20260506125805 75 259 0.0 1.0 0.00 0.00 0.00 88 1001.6
20260506125705 75 259 0.0 1.0 0.00 0.00 0.00 88 1001.5
20260506125604 75 259 0.0 1.0 0.00 0.00 0.00 88 1001.5
20260506125502 75 259 0.0 1.0 0.00 0.00 0.00 88 1001.5
20260506125405 75 259 0.0 1.0 0.00 0.00 0.00 88 1001.5
20260506125305 74 259 0.0 0.0 0.00 0.00 0.00 88 1001.5
20260506125204 75 259 0.0 0.0 0.00 0.00 0.00 88 1001.5
20260506125102 74 259 0.0 0.0 0.00 0.00 0.00 88 1001.4
20260506125004 74 259 0.0 0.0 0.00 0.00 0.00 88 1001.4
20260506124902 74 259 0.0 0.0 0.00 0.00 0.00 88 1001.5
20260506124805 74 259 0.0 0.0 0.00 0.00 0.00 88 1001.4
20260506124704 74 259 0.0 0.0 0.00 0.00 0.00 88 1001.3
20260506124605 74 259 0.0 0.0 0.00 0.00 0.00 88 1001.3
20260506124503 74 259 0.0 0.0 0.00 0.00 0.00 88 1001.3
20260506124404 74 259 0.0 0.0 0.00 0.00 0.00 88 1001.3
20260506124303 74 259 0.0 0.0 0.00 0.00 0.00 88 1001.3
20260506124204 74 259 0.0 0.0 0.00 0.00 0.00 88 1001.3
20260506124102 74 259 0.0 0.0 0.00 0.00 0.00 88 1001.3
20260506124003 74 259 0.0 0.0 0.00 0.00 0.00 88 1001.3
20260506123905 74 259 0.0 0.0 0.00 0.00 0.00 88 1001.3
20260506123805 74 259 0.0 0.0 0.00 0.00 0.00 88 1001.3
20260506123705 74 259 0.0 0.0 0.00 0.00 0.00 88 1001.3
20260506123603 74 259 0.0 0.0 0.00 0.00 0.00 88 1001.4
20260506123505 74 259 0.0 0.0 0.00 0.00 0.00 88 1001.2
20260506123402 74 259 0.0 0.0 0.00 0.00 0.00 88 1001.3
20260506123304 74 259 0.0 0.0 0.00 0.00 0.00 88 1001.3
20260506123203 74 259 0.0 0.0 0.00 0.00 0.00 88 1001.3
20260506123104 74 259 0.0 0.0 0.00 0.00 0.00 88 1001.2
20260506123004 74 259 0.0 0.0 0.00 0.00 0.00 88 1001.2
20260506122903 74 259 0.0 0.0 0.00 0.00 0.00 88 1001.2
20260506122804 74 259 0.0 0.0 0.00 0.00 0.00 88 1001.2
20260506122703 74 259 0.0 0.0 0.00 0.00 0.00 88 1001.2
20260506122602 74 259 0.0 0.0 0.00 0.00 0.00 88 1001.2
20260506122503 74 259 0.0 0.0 0.00 0.00 0.00 88 1001.2
20260506122403 74 259 0.0 0.0 0.00 0.00 0.00 88 1001.1
20260506122305 74 259 0.0 0.0 0.00 0.00 0.00 88 1001.1
20260506122204 74 259 0.0 0.0 0.00 0.00 0.00 88 1001.0
20260506122104 74 259 0.0 0.0 0.00 0.00 0.00 88 1001.1
20260506122002 74 259 0.0 0.0 0.00 0.00 0.00 88 1001.1
20260506121903 74 259 0.0 0.0 0.00 0.00 0.00 88 1001.1
20260506121802 74 259 0.0 0.0 0.00 0.00 0.00 88 1001.1
20260506121703 74 259 0.0 0.0 0.00 0.00 0.00 88 1001.2
20260506121602 74 259 0.0 0.0 0.00 0.00 0.00 88 1001.1
20260506121502 74 259 0.0 0.0 0.00 0.00 0.00 88 1001.1
20260506121403 74 259 0.0 0.0 0.00 0.00 0.00 88 1001.1
20260506121304 74 259 0.0 0.0 0.00 0.00 0.00 88 1001.2
20260506121202 74 259 0.0 0.0 0.00 0.00 0.00 88 1001.2
20260506121102 74 259 0.0 0.0 0.00 0.00 0.00 88 1001.3
20260506121002 74 259 0.0 0.0 0.00 0.00 0.00 88 1001.2
20260506120903 74 259 0.0 0.0 0.00 0.00 0.00 88 1001.2
20260506120804 74 259 0.0 0.0 0.00 0.00 0.00 88 1001.2
20260506120702 74 259 0.0 0.0 0.00 0.00 0.00 88 1001.2
20260506120603 74 259 0.0 0.0 0.00 0.00 0.00 88 1001.2
20260506120504 74 259 0.0 0.0 0.00 0.00 0.00 88 1001.2
20260506120404 74 259 0.0 0.0 0.00 0.00 0.00 88 1001.2
20260506120303 74 259 0.0 0.0 0.00 0.00 0.00 88 1001.2
20260506120203 74 259 0.0 0.0 0.00 0.00 0.00 88 1001.2
20260506120104 74 259 0.0 0.0 0.00 0.00 0.00 88 1001.2
20260506120004 74 259 0.0 0.0 0.00 0.00 0.00 88 1001.0
20260506115904 74 259 0.0 0.0 0.00 0.00 0.00 88 1001.1
20260506115804 74 259 0.0 0.0 0.00 0.00 0.00 88 1001.1
20260506115703 74 259 0.0 0.0 0.00 0.00 0.00 88 1001.0
20260506115605 74 259 0.0 0.0 0.00 0.00 0.00 88 1001.1
20260506115505 74 259 0.0 0.0 0.00 0.00 0.00 88 1001.1
20260506115404 74 259 0.0 0.0 0.00 0.00 0.00 88 1001.0
20260506115307 74 259 0.0 0.0 0.00 0.00 0.00 88 1001.0
20260506115202 74 259 0.0 0.0 0.00 0.00 0.00 88 1001.0
20260506115105 74 259 0.0 0.0 0.00 0.00 0.00 88 1001.0
20260506115003 74 259 0.0 0.0 0.00 0.00 0.00 88 1001.0
20260506114903 74 259 0.0 0.0 0.00 0.00 0.00 88 1001.0
20260506114804 74 259 0.0 0.0 0.00 0.00 0.00 88 1001.0
20260506114702 74 259 0.0 0.0 0.00 0.00 0.00 88 1001.0
20260506114605 74 259 0.0 0.0 0.00 0.00 0.00 88 1001.0
20260506114505 74 259 0.0 0.0 0.00 0.00 0.00 88 1000.9
20260506114402 74 259 0.0 0.0 0.00 0.00 0.00 88 1000.8
20260506114305 74 259 0.0 0.0 0.00 0.00 0.00 88 1000.8
20260506114204 74 259 0.0 0.0 0.00 0.00 0.00 88 1000.9
20260506114103 74 259 0.0 0.0 0.00 0.00 0.00 88 1000.8
20260506114003 74 259 0.0 0.0 0.00 0.00 0.00 88 1000.8
20260506113902 74 259 0.0 0.0 0.00 0.00 0.00 88 1000.8
20260506113802 74 259 0.0 0.0 0.00 0.00 0.00 88 1000.8
20260506113702 74 259 0.0 0.0 0.00 0.00 0.00 88 1000.7
20260506113605 74 259 0.0 0.0 0.00 0.00 0.00 88 1000.7
20260506113504 74 259 0.0 0.0 0.00 0.00 0.00 88 1000.7
20260506113402 74 259 0.0 0.0 0.00 0.00 0.00 88 1000.7
20260506113305 74 259 0.0 0.0 0.00 0.00 0.00 88 1000.8
20260506113202 74 259 0.0 0.0 0.00 0.00 0.00 88 1000.8
20260506113105 74 259 0.0 0.0 0.00 0.00 0.00 88 1000.9
20260506113004 74 259 0.0 0.0 0.00 0.00 0.00 88 1000.8
20260506112902 74 259 0.0 0.0 0.00 0.00 0.00 88 1000.8
20260506112802 74 259 0.0 0.0 0.00 0.00 0.00 88 1000.9
20260506112706 74 259 0.0 0.0 0.00 0.00 0.00 88 1000.9
20260506112603 74 259 0.0 0.0 0.00 0.00 0.00 88 1000.9
20260506112505 74 259 0.0 0.0 0.00 0.00 0.00 88 1000.9
20260506112403 74 259 0.0 0.0 0.00 0.00 0.00 88 1000.9
20260506112305 74 259 0.0 0.0 0.00 0.00 0.00 88 1000.9
20260506112202 74 259 0.0 1.0 0.00 0.00 0.00 88 1000.9
20260506112103 74 259 0.0 1.0 0.00 0.00 0.00 88 1000.9
20260506112002 74 259 0.0 1.0 0.00 0.00 0.00 88 1000.9
20260506111903 74 259 0.0 1.0 0.00 0.00 0.00 88 1000.7
20260506111802 74 259 0.0 1.0 0.00 0.00 0.00 88 1000.8
20260506111705 74 259 0.0 1.0 0.00 0.00 0.00 88 1000.8
20260506111602 74 259 0.0 1.0 0.00 0.00 0.00 88 1000.7
20260506111502 74 259 0.0 1.0 0.00 0.00 0.00 88 1000.7
20260506111403 74 259 0.0 1.0 0.00 0.00 0.00 88 1000.8
20260506111305 74 259 0.0 1.0 0.00 0.00 0.00 88 1000.8
20260506111204 74 259 0.0 0.0 0.00 0.00 0.00 88 1000.8
20260506111104 74 259 0.0 0.0 0.00 0.00 0.00 88 1000.8
20260506111002 74 259 0.0 0.0 0.00 0.00 0.00 88 1000.8
20260506110902 74 259 0.0 0.0 0.00 0.00 0.00 88 1000.8
20260506110804 74 259 0.0 0.0 0.00 0.00 0.00 88 1000.8
20260506110702 74 259 0.0 0.0 0.00 0.00 0.00 88 1000.8
20260506110603 74 259 0.0 0.0 0.00 0.00 0.00 88 1000.7
20260506110502 74 259 0.0 0.0 0.00 0.00 0.00 88 1000.7
20260506110404 74 259 0.0 0.0 0.00 0.00 0.00 87 1000.6
20260506110303 74 259 0.0 0.0 0.00 0.00 0.00 88 1000.6
20260506110204 74 259 0.0 0.0 0.00 0.00 0.00 88 1000.6
20260506110002 74 259 0.0 0.0 0.00 0.00 0.00 87 1000.6
20260506105902 74 259 0.0 0.0 0.00 0.00 0.00 87 1000.6
20260506105804 74 259 0.0 0.0 0.00 0.00 0.00 87 1000.6
20260506105704 74 259 0.0 0.0 0.00 0.00 0.00 87 1000.5
20260506105602 74 259 0.0 0.0 0.00 0.00 0.00 87 1000.5
20260506105502 74 259 0.0 0.0 0.00 0.00 0.00 87 1000.5
20260506105403 74 259 0.0 0.0 0.00 0.00 0.00 87 1000.5
20260506105305 74 259 0.0 0.0 0.00 0.00 0.00 87 1000.4
20260506105203 74 259 0.0 0.0 0.00 0.00 0.00 87 1000.4
20260506105103 74 259 0.0 0.0 0.00 0.00 0.00 87 1000.3
20260506105003 74 259 0.0 0.0 0.00 0.00 0.00 87 1000.3
20260506104904 74 259 0.0 0.0 0.00 0.00 0.00 87 1000.3
20260506104802 74 259 0.0 0.0 0.00 0.00 0.00 87 1000.2
20260506104701 74 259 0.0 1.0 0.00 0.00 0.00 87 1000.3
20260506104603 74 259 0.0 1.0 0.00 0.00 0.00 87 1000.2
20260506104503 74 259 0.0 1.0 0.00 0.00 0.00 87 1000.2
20260506104402 74 259 0.0 1.0 0.00 0.00 0.00 87 1000.2
20260506104302 74 259 0.0 1.0 0.00 0.00 0.00 87 1000.2
20260506104203 74 259 0.0 1.0 0.00 0.00 0.00 87 1000.1
20260506104103 74 259 0.0 1.0 0.00 0.00 0.00 87 1000.1
20260506104003 75 259 0.0 1.0 0.00 0.00 0.00 87 1000.1
20260506103902 75 259 0.0 1.0 0.00 0.00 0.00 87 1000.1
20260506103803 75 259 0.0 1.0 0.00 0.00 0.00 87 1000.0
20260506103702 75 259 0.0 1.0 0.00 0.00 0.00 87 1000.0
20260506103603 75 259 0.0 0.0 0.00 0.00 0.00 87 1000.0
20260506103503 75 259 0.0 0.0 0.00 0.00 0.00 87 1000.0
20260506103403 75 259 0.0 0.0 0.00 0.00 0.00 87 1000.0
20260506103303 75 259 0.0 1.0 0.00 0.00 0.00 87 999.9
20260506103204 75 259 0.0 1.0 0.00 0.00 0.00 87 999.8
20260506103103 75 259 0.0 1.0 0.00 0.00 0.00 87 999.8
20260506103002 75 259 0.0 1.0 0.00 0.00 0.00 87 999.8
20260506102902 75 259 0.0 1.0 0.00 0.00 0.00 87 999.9
20260506102802 75 259 0.0 1.0 0.00 0.00 0.00 87 999.8
20260506102704 75 259 0.0 1.0 0.00 0.00 0.00 87 999.8
20260506102603 75 259 0.0 1.0 0.00 0.00 0.00 87 999.8
20260506102501 75 259 0.0 1.0 0.00 0.00 0.00 87 999.8
20260506102402 75 259 1.0 1.0 0.00 0.00 0.00 87 999.9
20260506102305 75 259 0.0 1.0 0.00 0.00 0.00 87 999.9
20260506102203 75 250 0.0 1.0 0.00 0.00 0.00 87 999.8
20260506102102 75 250 0.0 1.0 0.00 0.00 0.00 87 999.9
20260506102004 75 250 0.0 3.0 0.00 0.00 0.00 87 999.8
20260506101904 75 248 0.0 3.0 0.00 0.00 0.00 87 999.9
20260506101802 75 248 0.0 3.0 0.00 0.00 0.00 87 999.9
20260506101702 75 248 0.0 3.0 0.00 0.00 0.00 87 999.9
20260506101604 75 248 0.0 3.0 0.00 0.00 0.00 87 999.9
20260506101503 75 248 0.0 3.0 0.00 0.00 0.00 87 999.9
20260506101401 75 248 0.0 3.0 0.00 0.00 0.00 87 999.9
20260506101302 75 248 0.0 3.0 0.00 0.00 0.00 87 999.9
20260506101203 75 214 1.0 3.0 0.00 0.00 0.00 87 999.9
20260506101102 75 214 1.0 3.0 0.00 0.00 0.00 87 999.9
20260506101003 75 1 1.0 3.0 0.00 0.00 0.00 87 999.9
20260506100903 75 202 0.0 2.0 0.00 0.00 0.00 87 999.9
20260506100803 75 202 0.0 2.0 0.00 0.00 0.00 87 999.9
20260506100702 75 202 1.0 2.0 0.00 0.00 0.00 87 999.9
20260506100602 75 207 1.0 2.0 0.00 0.00 0.00 87 999.8
20260506100450 75 207 0.0 2.0 0.00 0.00 0.00 87 999.8
20260506100344 75 343 0.0 2.0 0.00 0.00 0.00 87 999.9
20260506100245 75 343 1.0 2.0 0.00 0.00 0.00 87 999.8
20260506100140 75 344 0.0 2.0 0.00 0.00 0.00 87 999.9
20260506100035 75 254 0.0 1.0 0.00 0.00 0.00 87 999.9
20260506095934 75 254 0.0 1.0 0.00 0.00 0.00 87 999.9
20260506095835 75 254 0.0 1.0 0.00 0.00 0.00 87 999.9
20260506095735 75 254 0.0 1.0 0.00 0.00 0.00 87 999.9
20260506095635 75 254 0.0 1.0 0.00 0.00 0.00 87 999.9
20260506095534 75 254 0.0 1.0 0.00 0.00 0.00 87 999.9
20260506095435 75 254 0.0 2.0 0.00 0.00 0.00 87 999.9
20260506095334 75 254 0.0 2.0 0.00 0.00 0.00 87 999.8
20260506095235 75 254 0.0 2.0 0.00 0.00 0.00 87 999.9
20260506095135 75 254 0.0 2.0 0.00 0.00 0.00 87 999.8
20260506095034 75 254 0.0 2.0 0.00 0.00 0.00 87 999.8
20260506094934 75 254 0.0 2.0 0.00 0.00 0.00 87 999.8
20260506094836 75 254 0.0 2.0 0.00 0.00 0.00 87 999.8
20260506094734 75 254 0.0 2.0 0.00 0.00 0.00 87 999.7
20260506094634 75 254 0.0 2.0 0.00 0.00 0.00 87 999.7
20260506094534 75 254 0.0 2.0 0.00 0.00 0.00 87 999.7
20260506094436 75 228 0.0 2.0 0.00 0.00 0.00 87 999.7
20260506094335 75 226 0.0 2.0 0.00 0.00 0.00 87 999.6
20260506094233 75 226 0.0 2.0 0.00 0.00 0.00 87 999.6
20260506094134 75 193 0.0 1.0 0.00 0.00 0.00 87 999.6
20260506094035 75 193 0.0 1.0 0.00 0.00 0.00 87 999.7
20260506093933 75 193 0.0 1.0 0.00 0.00 0.00 87 999.6
20260506093835 75 193 0.0 1.0 0.00 0.00 0.00 87 999.6
20260506093733 75 193 0.0 1.0 0.00 0.00 0.00 87 999.5
20260506093632 75 193 0.0 1.0 0.00 0.00 0.00 87 999.5
20260506093532 75 193 0.0 1.0 0.00 0.00 0.00 87 999.5
20260506093432 75 193 0.0 1.0 0.00 0.00 0.00 87 999.5
20260506093332 75 193 0.0 1.0 0.00 0.00 0.00 87 999.5
20260506093231 75 193 0.0 1.0 0.00 0.00 0.00 87 999.5
20260506093133 75 193 0.0 1.0 0.00 0.00 0.00 87 999.6
20260506093033 75 193 0.0 1.0 0.00 0.00 0.00 87 999.5
20260506092931 75 193 0.0 1.0 0.00 0.00 0.00 87 999.5
20260506092832 75 193 0.0 1.0 0.00 0.00 0.00 87 999.6
20260506092732 75 193 0.0 1.0 0.00 0.00 0.00 87 999.5
20260506092632 75 193 0.0 1.0 0.00 0.00 0.00 87 999.5
20260506092533 75 193 0.0 1.0 0.00 0.00 0.00 87 999.5
20260506092431 75 193 0.0 1.0 0.00 0.00 0.00 87 999.6
20260506092331 75 193 0.0 1.0 0.00 0.00 0.00 87 999.6
20260506092233 75 193 0.0 1.0 0.00 0.00 0.00 87 999.5
20260506092131 75 193 0.0 1.0 0.00 0.00 0.00 87 999.6
20260506092033 75 193 0.0 1.0 0.00 0.00 0.00 87 999.5
20260506091931 75 193 0.0 1.0 0.00 0.00 0.00 87 999.6
20260506091832 75 193 0.0 1.0 0.00 0.00 0.00 87 999.6
20260506091732 75 193 0.0 1.0 0.00 0.00 0.00 87 999.6
20260506091631 75 193 0.0 1.0 0.00 0.00 0.00 87 999.5
20260506091531 75 193 0.0 1.0 0.00 0.00 0.00 87 999.5
20260506091432 75 193 0.0 1.0 0.00 0.00 0.00 87 999.5
20260506091331 75 193 0.0 2.0 0.00 0.00 0.00 87 999.5
20260506091233 75 193 0.0 2.0 0.00 0.00 0.00 87 999.5
20260506091133 75 193 0.0 2.0 0.00 0.00 0.00 87 999.6
20260506091031 75 193 0.0 2.0 0.00 0.00 0.00 87 999.6
20260506090931 75 193 0.0 2.0 0.00 0.00 0.00 87 999.6
20260506090831 75 165 0.0 2.0 0.00 0.00 0.00 87 999.6
20260506090732 75 165 0.0 2.0 0.00 0.00 0.00 87 999.6
20260506090631 75 165 0.0 2.0 0.00 0.00 0.00 87 999.6
20260506090531 75 165 0.0 2.0 0.00 0.00 0.00 87 999.6
20260506090431 75 165 0.0 2.0 0.00 0.00 0.00 87 999.7
20260506090333 75 165 0.0 2.0 0.00 0.00 0.00 87 999.5
20260506090232 75 165 0.0 2.0 0.00 0.00 0.00 87 999.5
20260506090134 75 165 0.0 2.0 0.00 0.00 0.00 86 999.5
20260506090033 75 165 0.0 2.0 0.00 0.00 0.00 86 999.5
20260506085932 75 165 0.0 2.0 0.00 0.00 0.00 86 999.6
20260506085832 75 165 0.0 2.0 0.00 0.00 0.00 86 999.6
20260506085733 75 165 0.0 2.0 0.00 0.00 0.00 86 999.5
20260506085631 75 165 0.0 2.0 0.00 0.00 0.00 86 999.5
20260506085531 75 165 1.0 2.0 0.00 0.00 0.00 86 999.5
20260506085433 75 157 0.0 2.0 0.00 0.00 0.00 86 999.5
20260506085331 75 290 0.0 2.0 0.00 0.00 0.00 86 999.5
20260506085231 75 290 0.0 2.0 0.00 0.00 0.00 86 999.4
20260506085131 75 290 0.0 2.0 0.00 0.00 0.00 86 999.4
20260506085032 75 290 0.0 2.0 0.00 0.00 0.00 86 999.4
20260506084931 75 290 1.0 2.0 0.00 0.00 0.00 86 999.4
20260506084833 75 290 1.0 2.0 0.00 0.00 0.00 86 999.5
20260506084731 75 290 1.0 2.0 0.00 0.00 0.00 86 999.4
20260506084631 75 248 1.0 2.0 0.00 0.00 0.00 86 999.4
20260506084531 75 248 0.0 2.0 0.00 0.00 0.00 86 999.4
20260506084432 75 252 0.0 2.0 0.00 0.00 0.00 86 999.4
20260506084321 75 252 0.0 2.0 0.00 0.00 0.00 86 999.4
20260506084213 75 85 0.0 2.0 0.00 0.00 0.00 86 999.4
20260506084109 75 89 0.0 2.0 0.00 0.00 0.00 86 999.4
20260506084011 75 89 0.0 2.0 0.00 0.00 0.00 86 999.4
20260506083906 75 317 0.0 2.0 0.00 0.00 0.00 86 999.4
20260506083804 75 317 0.0 2.0 0.00 0.00 0.00 86 999.4
20260506083701 75 241 0.0 0.0 0.00 0.00 0.00 86 999.4
20260506083601 75 241 0.0 1.0 0.00 0.00 0.00 86 999.3
20260506083502 75 241 0.0 1.0 0.00 0.00 0.00 86 999.4
20260506083402 75 241 0.0 1.0 0.00 0.00 0.00 86 999.5
20260506083304 75 241 0.0 1.0 0.00 0.00 0.00 86 999.5
20260506083202 76 241 0.0 1.0 0.00 0.00 0.00 86 999.5
20260506083102 76 241 0.0 1.0 0.00 0.00 0.00 86 999.7
20260506083002 76 241 0.0 1.0 0.00 0.00 0.00 86 999.6
20260506082903 76 241 0.0 1.0 0.00 0.00 0.00 86 999.7
20260506082804 76 241 0.0 1.0 0.00 0.00 0.00 86 999.7
20260506082704 76 241 0.0 1.0 0.00 0.00 0.00 86 999.7
20260506082604 76 241 0.0 1.0 0.00 0.00 0.00 86 999.7
20260506082502 76 241 0.0 1.0 0.00 0.00 0.00 86 999.7
20260506082403 76 241 0.0 1.0 0.00 0.00 0.00 86 999.7
20260506082305 76 241 0.0 1.0 0.00 0.00 0.00 86 999.6
20260506082202 76 241 0.0 1.0 0.00 0.00 0.00 86 999.7
20260506082102 76 241 0.0 1.0 0.00 0.00 0.00 86 999.7
20260506082003 76 241 0.0 1.0 0.00 0.00 0.00 86 999.7
20260506081902 76 241 0.0 1.0 0.00 0.00 0.00 86 999.8
20260506081802 76 241 0.0 1.0 0.00 0.00 0.00 86 999.6
20260506081702 76 241 0.0 1.0 0.00 0.00 0.00 86 999.7
20260506081603 76 241 0.0 2.0 0.00 0.00 0.00 86 999.7
20260506081503 76 241 0.0 2.0 0.00 0.00 0.00 86 999.7
20260506081401 76 241 0.0 2.0 0.00 0.00 0.00 86 999.8
20260506081302 76 241 0.0 2.0 0.00 0.00 0.00 86 999.7
20260506081202 76 241 0.0 2.0 0.00 0.00 0.00 86 999.7
20260506081102 76 241 0.0 2.0 0.00 0.00 0.00 86 999.7
20260506081002 76 241 0.0 2.0 0.00 0.00 0.00 86 999.7
20260506080904 76 241 0.0 2.0 0.00 0.00 0.00 86 999.7
20260506080802 76 230 0.0 2.0 0.00 0.00 0.00 86 999.7
20260506080702 76 230 1.0 2.0 0.00 0.00 0.00 86 999.7
20260506080603 76 230 0.0 1.0 0.00 0.00 0.00 86 999.7
20260506080503 76 227 0.0 1.0 0.00 0.00 0.00 86 999.7
20260506080402 76 227 0.0 1.0 0.00 0.00 0.00 86 999.7
20260506080303 76 250 0.0 1.0 0.00 0.00 0.00 86 999.7
20260506080202 76 250 0.0 1.0 0.00 0.00 0.00 86 999.8
20260506073503 76 329 0.0 0.0 0.00 0.00 0.00 86 1000.4
20260506073402 76 329 0.0 0.0 0.00 0.00 0.00 86 1000.5
20260506073302 76 329 0.0 0.0 0.00 0.00 0.00 86 1000.5
20260506073203 76 347 0.0 0.0 0.00 0.00 0.00 86 1000.4
20260506073102 76 347 0.0 0.0 0.00 0.00 0.00 86 1000.3
20260506073001 76 347 0.0 0.0 0.00 0.00 0.00 86 1000.4
20260506072902 76 347 0.0 0.0 0.00 0.00 0.00 86 1000.4
20260506072803 76 347 0.0 0.0 0.00 0.00 0.00 86 1000.4
20260506072703 76 0 0.0 0.0 0.00 0.00 0.00 86 1000.3
20260506072603 76 0 0.0 0.0 0.00 0.00 0.00 86 1000.4
20260506072503 76 0 0.0 0.0 0.00 0.00 0.00 86 1000.4
20260506072402 76 24 0.0 0.0 0.00 0.00 0.00 86 1000.5
20260506072306 76 24 0.0 0.0 0.00 0.00 0.00 86 1000.4
20260506072202 76 24 0.0 0.0 0.00 0.00 0.00 86 1000.4
20260506072103 76 258 0.0 0.0 0.00 0.00 0.00 86 1000.5
20260506072002 76 258 0.0 0.0 0.00 0.00 0.00 86 1000.5
20260506071903 76 258 0.0 0.0 0.00 0.00 0.00 86 1000.5
20260506071803 76 258 0.0 0.0 0.00 0.00 0.00 86 1000.6
20260506071702 76 258 0.0 0.0 0.00 0.00 0.00 86 1000.6
20260506071602 76 173 0.0 0.0 0.00 0.00 0.00 86 1000.5
20260506071504 76 180 0.0 0.0 0.00 0.00 0.00 86 1000.6
20260506071403 76 180 0.0 0.0 0.00 0.00 0.00 86 1000.6
20260506071302 76 180 0.0 0.0 0.00 0.00 0.00 86 1000.6
20260506071202 76 168 0.0 0.0 0.00 0.00 0.00 86 1000.6
20260506071103 76 168 0.0 0.0 0.00 0.00 0.00 86 1000.6
20260506071002 76 168 0.0 0.0 0.00 0.00 0.00 86 1000.7
20260506070903 76 168 0.0 0.0 0.00 0.00 0.00 86 1000.7
20260506070803 76 168 0.0 0.0 0.00 0.00 0.00 86 1000.7
20260506070703 76 168 0.0 0.0 0.00 0.00 0.00 86 1000.8
20260506070603 76 168 0.0 0.0 0.00 0.00 0.00 86 1000.8
20260506070502 76 168 0.0 1.0 0.00 0.00 0.00 86 1000.8
20260506070403 76 168 0.0 1.0 0.00 0.00 0.00 86 1000.8
20260506070303 76 168 0.0 1.0 0.00 0.00 0.00 86 1000.7
20260506070204 76 168 0.0 1.0 0.00 0.00 0.00 86 1000.7
20260506070103 76 168 0.0 1.0 0.00 0.00 0.00 86 1000.8
20260506062429 76 102 0.0 1.0 0.00 0.00 0.00 86 1000.8
20260506062331 76 102 0.0 1.0 0.00 0.00 0.00 86 1000.8
20260506062230 76 102 0.0 1.0 0.00 0.00 0.00 86 1000.8
20260506062130 76 102 0.0 2.0 0.00 0.00 0.00 86 1000.9
20260506062031 76 102 0.0 2.0 0.00 0.00 0.00 86 1000.9
20260506061930 76 102 0.0 2.0 0.00 0.00 0.00 86 1000.9
20260506061830 76 102 0.0 2.0 0.00 0.00 0.00 86 1000.9
20260506061730 76 102 0.0 2.0 0.00 0.00 0.00 86 1000.8
20260506061630 76 102 0.0 2.0 0.00 0.00 0.00 86 1000.8
20260506061532 76 102 0.0 2.0 0.00 0.00 0.00 86 1000.8
20260506061431 76 104 0.0 2.0 0.00 0.00 0.00 86 1000.9
20260506061330 76 104 0.0 2.0 0.00 0.00 0.00 86 1000.9
20260506061232 76 103 1.0 2.0 0.00 0.00 0.00 85 1000.8
20260506061131 76 72 0.0 2.0 0.00 0.00 0.00 85 1000.8
20260506061031 76 216 0.0 1.0 0.00 0.00 0.00 85 1000.8
20260506060931 76 216 0.0 1.0 0.00 0.00 0.00 85 1000.9
20260506060829 76 216 0.0 1.0 0.00 0.00 0.00 85 1000.8
20260506060729 76 216 0.0 1.0 0.00 0.00 0.00 85 1000.8
20260506060630 76 252 0.0 1.0 0.00 0.00 0.00 85 1000.8
20260506060530 76 252 0.0 1.0 0.00 0.00 0.00 85 1000.8
20260506060430 76 252 0.0 1.0 0.00 0.00 0.00 85 1000.8
20260506060331 76 252 0.0 2.0 0.00 0.00 0.00 85 1000.8
20260506060232 76 252 0.0 2.0 0.00 0.00 0.00 85 1000.8
20260506060132 76 252 0.0 2.0 0.00 0.00 0.00 85 1000.8
20260506051316 77 324 0.0 3.0 0.00 0.00 0.00 85 1000.7
20260506051215 77 324 0.0 3.0 0.00 0.00 0.00 85 1000.7
20260506051111 77 324 1.0 3.0 0.00 0.00 0.00 85 1000.6
20260506051009 77 324 1.0 3.0 0.00 0.00 0.00 85 1000.6
20260506050908 77 268 0.0 2.0 0.00 0.00 0.00 85 1000.6
20260506050807 77 268 0.0 2.0 0.00 0.00 0.00 85 1000.6
20260506050705 77 268 0.0 2.0 0.00 0.00 0.00 85 1000.6
20260506050603 77 268 0.0 2.0 0.00 0.00 0.00 85 1000.6
20260506050503 77 268 0.0 2.0 0.00 0.00 0.00 85 1000.5
20260506050401 77 268 0.0 2.0 0.00 0.00 0.00 84 1000.5
20260506050302 77 268 0.0 2.0 0.00 0.00 0.00 84 1000.5
20260506050204 77 264 0.0 2.0 0.00 0.00 0.00 85 1000.4
20260506050105 77 264 0.0 2.0 0.00 0.00 0.00 84 1000.5
20260506045102 77 265 1.0 3.0 0.00 0.00 0.00 84 1000.6
20260506045005 77 265 1.0 3.0 0.00 0.00 0.00 84 1000.6
20260506044903 77 299 0.0 3.0 0.00 0.00 0.00 84 1000.6
20260506044802 77 299 0.0 3.0 0.00 0.00 0.00 84 1000.6
20260506044703 77 299 1.0 3.0 0.00 0.00 0.00 84 1000.6
20260506044603 77 358 1.0 3.0 0.00 0.00 0.00 84 1000.7
20260506044504 77 0 0.0 3.0 0.00 0.00 0.00 84 1000.7
20260506044402 77 279 0.0 2.0 0.00 0.00 0.00 84 1000.7
20260506044303 77 279 0.0 2.0 0.00 0.00 0.00 84 1000.6
20260506044204 77 279 0.0 2.0 0.00 0.00 0.00 84 1000.6
20260506044104 77 279 0.0 2.0 0.00 0.00 0.00 84 1000.6
20260506044004 77 279 0.0 2.0 0.00 0.00 0.00 84 1000.6
20260506043905 77 279 0.0 2.0 0.00 0.00 0.00 84 1000.6
20260506043803 77 279 0.0 2.0 0.00 0.00 0.00 84 1000.6
20260506043703 77 279 0.0 2.0 0.00 0.00 0.00 84 1000.5
20260506043604 77 255 0.0 4.0 0.00 0.00 0.00 84 1000.5
20260506043504 77 255 0.0 4.0 0.00 0.00 0.00 84 1000.5
20260506043405 77 265 0.0 4.0 0.00 0.00 0.00 84 1000.5
20260506043305 77 265 1.0 4.0 0.00 0.00 0.00 84 1000.4
20260506043203 77 265 0.0 4.0 0.00 0.00 0.00 84 1000.4
20260506043102 77 255 0.0 4.0 0.00 0.00 0.00 84 1000.4
20260506043004 77 255 0.0 4.0 0.00 0.00 0.00 84 1000.5
20260506042903 77 255 0.0 4.0 0.00 0.00 0.00 84 1000.4
20260506042803 77 255 1.0 4.0 0.00 0.00 0.00 84 1000.4
20260506042703 77 254 1.0 4.0 0.00 0.00 0.00 84 1000.4
20260506042603 77 303 0.0 2.0 0.00 0.00 0.00 84 1000.5
20260506042505 77 303 0.0 2.0 0.00 0.00 0.00 84 1000.4
20260506042404 77 306 0.0 2.0 0.00 0.00 0.00 84 1000.4
20260506042305 77 305 0.0 2.0 0.00 0.00 0.00 84 1000.4
20260506042202 77 305 0.0 2.0 0.00 0.00 0.00 84 1000.4
20260506042104 77 305 0.0 2.0 0.00 0.00 0.00 84 1000.5
20260506042005 77 306 0.0 2.0 0.00 0.00 0.00 84 1000.5
20260506041905 77 305 0.0 2.0 0.00 0.00 0.00 84 1000.4
20260506041758 77 305 1.0 2.0 0.00 0.00 0.00 84 1000.4
20260506041653 77 305 0.0 2.0 0.00 0.00 0.00 84 1000.4
20260506041551 77 250 0.0 2.0 0.00 0.00 0.00 84 1000.5
20260506041453 77 250 0.0 2.0 0.00 0.00 0.00 84 1000.4
20260506041339 77 250 0.0 2.0 0.00 0.00 0.00 84 1000.4
20260506041239 77 248 0.0 3.0 0.00 0.00 0.00 84 1000.5
20260506041130 77 248 0.0 3.0 0.00 0.00 0.00 84 1000.5
20260506041028 77 248 1.0 3.0 0.00 0.00 0.00 84 1000.4
20260506040927 77 248 1.0 3.0 0.00 0.00 0.00 84 1000.5
20260506040827 77 341 0.0 3.0 0.00 0.00 0.00 84 1000.5
20260506040728 77 341 0.0 3.0 0.00 0.00 0.00 84 1000.6
20260506040626 77 341 0.0 3.0 0.00 0.00 0.00 84 1000.6
20260506040528 77 341 1.0 3.0 0.00 0.00 0.00 84 1000.6
20260506040426 77 341 1.0 3.0 0.00 0.00 0.00 84 1000.6
20260506040326 77 345 1.0 3.0 0.00 0.00 0.00 84 1000.6
20260506040226 77 151 0.0 1.0 0.00 0.00 0.00 84 1000.7
20260506040127 77 151 0.0 1.0 0.00 0.00 0.00 84 1000.6
20260506040026 77 151 0.0 1.0 0.00 0.00 0.00 84 1000.7
20260506035927 77 151 0.0 1.0 0.00 0.00 0.00 84 1000.7
20260506035828 77 151 0.0 1.0 0.00 0.00 0.00 83 1000.6
20260506035727 77 151 0.0 1.0 0.00 0.00 0.00 83 1000.7
20260506035626 77 151 0.0 1.0 0.00 0.00 0.00 83 1000.6
20260506035527 77 151 0.0 1.0 0.00 0.00 0.00 83 1000.6
20260506035426 77 151 0.0 1.0 0.00 0.00 0.00 83 1000.5
20260506035327 77 151 0.0 1.0 0.00 0.00 0.00 83 1000.6
20260506035228 77 151 0.0 1.0 0.00 0.00 0.00 83 1000.5
20260506035127 77 151 0.0 1.0 0.00 0.00 0.00 83 1000.5
20260506035028 77 151 0.0 2.0 0.00 0.00 0.00 83 1000.4
20260506034926 77 151 0.0 2.0 0.00 0.00 0.00 83 1000.4
20260506034827 77 151 0.0 2.0 0.00 0.00 0.00 83 1000.4
20260506034728 77 151 0.0 2.0 0.00 0.00 0.00 83 1000.3
20260506034626 77 151 0.0 2.0 0.00 0.00 0.00 83 1000.4
20260506034527 77 151 0.0 2.0 0.00 0.00 0.00 83 1000.3
20260506034427 77 151 0.0 2.0 0.00 0.00 0.00 83 1000.3
20260506034326 77 151 0.0 2.0 0.00 0.00 0.00 83 1000.3
20260506034226 77 151 0.0 2.0 0.00 0.00 0.00 83 1000.3
20260506034128 77 151 0.0 2.0 0.00 0.00 0.00 83 1000.3
20260506034026 77 128 0.0 1.0 0.00 0.00 0.00 83 1000.3
20260506033926 77 128 0.0 1.0 0.00 0.00 0.00 83 1000.3
20260506033826 77 237 0.0 1.0 0.00 0.00 0.00 83 1000.3
20260506033726 77 237 0.0 1.0 0.00 0.00 0.00 83 1000.3
20260506033627 77 237 0.0 1.0 0.00 0.00 0.00 83 1000.3
20260506033527 77 237 0.0 1.0 0.00 0.00 0.00 83 1000.4
20260506033426 77 237 0.0 1.0 0.00 0.00 0.00 83 1000.3
20260506033327 77 251 0.0 1.0 0.00 0.00 0.00 83 1000.3
20260506033226 77 251 0.0 1.0 0.00 0.00 0.00 83 1000.2
20260506033127 77 28 0.0 1.0 0.00 0.00 0.00 83 1000.3
20260506033027 77 28 0.0 1.0 0.00 0.00 0.00 83 1000.2
20260506032927 77 28 0.0 1.0 0.00 0.00 0.00 83 1000.3
20260506032827 77 28 0.0 1.0 0.00 0.00 0.00 83 1000.3
20260506032725 77 340 0.0 1.0 0.00 0.00 0.00 83 1000.3
20260506032625 77 340 0.0 1.0 0.00 0.00 0.00 83 1000.3
20260506032526 77 340 0.0 1.0 0.00 0.00 0.00 83 1000.2
20260506032427 77 340 0.0 1.0 0.00 0.00 0.00 83 1000.2
20260506032326 77 340 0.0 1.0 0.00 0.00 0.00 83 1000.1
20260506032225 77 341 0.0 1.0 0.00 0.00 0.00 83 1000.2
20260506032126 77 341 0.0 0.0 0.00 0.00 0.00 83 1000.1
20260506032026 77 341 0.0 1.0 0.00 0.00 0.00 83 1000.1
20260506031927 77 341 0.0 1.0 0.00 0.00 0.00 83 1000.1
20260506031825 77 341 0.0 1.0 0.00 0.00 0.00 83 1000.1
20260506031726 77 341 0.0 1.0 0.00 0.00 0.00 83 1000.1
20260506031625 77 341 0.0 1.0 0.00 0.00 0.00 83 1000.1
20260506031525 77 341 0.0 1.0 0.00 0.00 0.00 82 1000.1
20260506031427 77 341 0.0 1.0 0.00 0.00 0.00 82 1000.1
20260506031321 77 341 0.0 1.0 0.00 0.00 0.00 82 1000.0
20260506031215 77 341 0.0 1.0 0.00 0.00 0.00 82 1000.1
20260506031113 77 341 0.0 1.0 0.00 0.00 0.00 82 1000.1
20260506031009 77 341 0.0 0.0 0.00 0.00 0.00 82 1000.1
20260506030910 77 341 0.0 0.0 0.00 0.00 0.00 82 1000.1
20260506030810 77 341 0.0 0.0 0.00 0.00 0.00 82 1000.1
20260506030710 78 341 0.0 0.0 0.00 0.00 0.00 82 1000.1
20260506030606 78 341 0.0 0.0 0.00 0.00 0.00 82 1000.1
20260506030503 78 341 0.0 0.0 0.00 0.00 0.00 82 1000.2
20260506030403 78 341 0.0 0.0 0.00 0.00 0.00 82 1000.1
20260506030302 78 341 0.0 0.0 0.00 0.00 0.00 82 1000.2
20260506030202 78 341 0.0 0.0 0.00 0.00 0.00 82 1000.2
20260506030103 78 341 0.0 0.0 0.00 0.00 0.00 82 1000.1
20260506030003 78 341 0.0 0.0 0.00 0.00 0.00 82 1000.1
20260506025902 78 341 0.0 0.0 0.00 0.00 0.00 82 1000.1
20260506025803 78 341 0.0 0.0 0.00 0.00 0.00 82 1000.2
20260506025702 78 341 0.0 0.0 0.00 0.00 0.00 82 1000.1
20260506025604 78 341 0.0 0.0 0.00 0.00 0.00 82 1000.1
20260506025503 78 341 0.0 0.0 0.00 0.00 0.00 82 1000.0
20260506025404 78 341 0.0 0.0 0.00 0.00 0.00 82 1000.0
20260506025253 78 341 0.0 0.0 0.00 0.00 0.00 82 999.9
20260506025154 78 341 0.0 0.0 0.00 0.00 0.00 82 1000.0
20260506025055 78 341 0.0 1.0 0.00 0.00 0.00 82 999.9
20260506024948 78 341 0.0 1.0 0.00 0.00 0.00 82 999.9
20260506024836 78 341 0.0 1.0 0.00 0.00 0.00 82 999.9
20260506024730 78 341 0.0 1.0 0.00 0.00 0.00 82 999.9
20260506024632 78 341 0.0 1.0 0.00 0.00 0.00 82 999.9
20260506024531 78 341 0.0 1.0 0.00 0.00 0.00 82 999.8
20260506024426 78 341 0.0 1.0 0.00 0.00 0.00 82 999.8
20260506024326 78 341 0.0 1.0 0.00 0.00 0.00 82 999.7
20260506024226 78 341 0.0 1.0 0.00 0.00 0.00 82 999.8
20260506024124 78 341 0.0 1.0 0.00 0.00 0.00 82 999.7
20260506024025 78 341 0.0 1.0 0.00 0.00 0.00 82 999.7
20260506023925 78 341 0.0 1.0 0.00 0.00 0.00 82 999.7
20260506023826 78 341 0.0 1.0 0.00 0.00 0.00 82 999.7
20260506023726 78 341 0.0 1.0 0.00 0.00 0.00 82 999.7
20260506023625 78 341 0.0 1.0 0.00 0.00 0.00 82 999.7
20260506023525 78 341 0.0 1.0 0.00 0.00 0.00 82 999.7
20260506023424 78 341 0.0 1.0 0.00 0.00 0.00 82 999.7
20260506023325 78 341 0.0 0.0 0.00 0.00 0.00 82 999.6
20260506023224 78 341 0.0 0.0 0.00 0.00 0.00 82 999.6
20260506023127 78 341 0.0 0.0 0.00 0.00 0.00 82 999.6
20260506023024 78 341 0.0 0.0 0.00 0.00 0.00 82 999.5
20260506022925 78 341 0.0 0.0 0.00 0.00 0.00 82 999.5
20260506022824 78 341 0.0 0.0 0.00 0.00 0.00 82 999.4
20260506022726 78 341 0.0 0.0 0.00 0.00 0.00 82 999.4
20260506022627 78 0 0.0 0.0 0.00 0.00 0.00 82 999.5
20260506022524 78 0 0.0 0.0 0.00 0.00 0.00 82 999.4
20260506022424 78 0 0.0 0.0 0.00 0.00 0.00 82 999.4
20260506022325 78 0 0.0 0.0 0.00 0.00 0.00 82 999.4
20260506022225 78 0 0.0 0.0 0.00 0.00 0.00 82 999.4
20260506022124 78 0 0.0 0.0 0.00 0.00 0.00 82 999.4
20260506022024 78 0 0.0 0.0 0.00 0.00 0.00 82 999.4
20260506021924 78 0 0.0 1.0 0.00 0.00 0.00 82 999.4
20260506021824 78 0 0.0 1.0 0.00 0.00 0.00 82 999.4
20260506021724 78 0 0.0 1.0 0.00 0.00 0.00 82 999.4
20260506021624 78 0 0.0 1.0 0.00 0.00 0.00 82 999.4
20260506021525 78 0 0.0 1.0 0.00 0.00 0.00 82 999.3
20260506021424 78 0 0.0 1.0 0.00 0.00 0.00 82 999.4
20260506021325 78 0 0.0 1.0 0.00 0.00 0.00 82 999.3
20260506021225 78 0 0.0 1.0 0.00 0.00 0.00 82 999.2
20260506021125 78 0 0.0 1.0 0.00 0.00 0.00 82 999.3
20260506021024 78 0 0.0 1.0 0.00 0.00 0.00 82 999.3
20260506020926 78 0 0.0 1.0 0.00 0.00 0.00 82 999.2
20260506020824 78 0 0.0 1.0 0.00 0.00 0.00 82 999.2
20260506020725 78 0 0.0 1.0 0.00 0.00 0.00 82 999.3
20260506020625 78 0 0.0 2.0 0.00 0.00 0.00 81 999.2
20260506020524 78 0 0.0 2.0 0.00 0.00 0.00 81 999.2
20260506020425 78 0 0.0 2.0 0.00 0.00 0.00 81 999.2
20260506020325 78 0 0.0 2.0 0.00 0.00 0.00 81 999.3
20260506020224 78 10 0.0 2.0 0.00 0.00 0.00 81 999.2
20260506020125 78 10 0.0 2.0 0.00 0.00 0.00 81 999.2
20260506020026 78 10 0.0 2.0 0.00 0.00 0.00 81 999.2
20260506015925 78 10 0.0 2.0 0.00 0.00 0.00 81 999.2
20260506015823 78 10 0.0 2.0 0.00 0.00 0.00 81 999.2
20260506015724 78 10 0.0 2.0 0.00 0.00 0.00 81 999.2
20260506015624 78 305 0.0 2.0 0.00 0.00 0.00 81 999.2
20260506015523 78 224 0.0 2.0 0.00 0.00 0.00 81 999.1
20260506015423 78 200 0.0 2.0 0.00 0.00 0.00 81 999.1
20260506015324 78 200 0.0 2.0 0.00 0.00 0.00 81 999.1
20260506015223 78 196 0.0 2.0 0.00 0.00 0.00 81 999.0
20260506015125 78 245 0.0 2.0 0.00 0.00 0.00 81 998.9
20260506015023 78 245 0.0 2.0 0.00 0.00 0.00 81 999.0
20260506014925 78 245 0.0 2.0 0.00 0.00 0.00 81 998.9
20260506014822 78 245 0.0 2.0 0.00 0.00 0.00 81 998.8
20260506014721 78 245 0.0 2.0 0.00 0.00 0.00 81 998.9
20260506014623 78 210 0.0 2.0 0.00 0.00 0.00 81 998.8
20260506014514 78 210 0.0 2.0 0.00 0.00 0.00 81 998.8
20260506014415 79 210 0.0 2.0 0.00 0.00 0.00 81 998.8
20260506014310 79 271 0.0 0.0 0.00 0.00 0.00 81 998.7
20260506014209 79 259 0.0 0.0 0.00 0.00 0.00 81 998.8
20260506014106 79 259 0.0 0.0 0.00 0.00 0.00 81 998.7
20260506014003 79 259 0.0 0.0 0.00 0.00 0.00 81 998.7
20260506013904 79 259 0.0 0.0 0.00 0.00 0.00 81 998.8
20260506013803 79 259 0.0 1.0 0.00 0.00 0.00 81 998.7
20260506013702 79 259 0.0 1.0 0.00 0.00 0.00 81 998.7
20260506013602 79 259 0.0 1.0 0.00 0.00 0.00 81 998.7
20260506013502 79 259 0.0 2.0 0.00 0.00 0.00 81 998.6
20260506013404 79 259 0.0 2.0 0.00 0.00 0.00 81 998.7
20260506013303 79 259 0.0 2.0 0.00 0.00 0.00 81 998.6
20260506013202 79 259 0.0 2.0 0.00 0.00 0.00 81 998.7
20260506013103 79 259 0.0 2.0 0.00 0.00 0.00 81 998.6
20260506013005 79 259 0.0 2.0 0.00 0.00 0.00 81 998.6
20260506012902 79 259 0.0 2.0 0.00 0.00 0.00 81 998.6
20260506012803 79 258 0.0 2.0 0.00 0.00 0.00 80 998.6
20260506012702 79 258 0.0 2.0 0.00 0.00 0.00 80 998.6
20260506012602 79 258 0.0 2.0 0.00 0.00 0.00 80 998.7
20260506012503 79 182 0.0 0.0 0.00 0.00 0.00 80 998.7
20260506012403 79 244 0.0 1.0 0.00 0.00 0.00 80 998.6
20260506012307 79 244 0.0 1.0 0.00 0.00 0.00 80 998.7
20260506012202 79 244 0.0 1.0 0.00 0.00 0.00 80 998.6
20260506012102 79 244 0.0 1.0 0.00 0.00 0.00 80 998.7
20260506012003 79 244 0.0 1.0 0.00 0.00 0.00 80 998.6
20260506011904 79 244 0.0 1.0 0.00 0.00 0.00 80 998.6
20260506011803 79 244 0.0 1.0 0.00 0.00 0.00 80 998.6
20260506011702 79 244 0.0 1.0 0.00 0.00 0.00 80 998.5
20260506011602 79 244 0.0 1.0 0.00 0.00 0.00 80 998.6
20260506011505 79 244 0.0 1.0 0.00 0.00 0.00 80 998.5
20260506011402 79 244 0.0 0.0 0.00 0.00 0.00 80 998.6
20260506011303 79 244 0.0 0.0 0.00 0.00 0.00 80 998.5
20260506011202 79 244 0.0 0.0 0.00 0.00 0.00 80 998.5
20260506011103 79 244 0.0 1.0 0.00 0.00 0.00 80 998.5
20260506011005 79 244 0.0 2.0 0.00 0.00 0.00 80 998.4
20260506010902 79 244 0.0 2.0 0.00 0.00 0.00 80 998.5
20260506010802 80 244 0.0 2.0 0.00 0.00 0.00 80 998.4
20260506010702 80 244 0.0 2.0 0.00 0.00 0.00 80 998.5
20260506010601 80 244 0.0 2.0 0.00 0.00 0.00 80 998.4
20260506010505 80 244 0.0 2.0 0.00 0.00 0.00 80 998.5
20260506010402 80 244 0.0 2.0 0.00 0.00 0.00 80 998.4
20260506010303 80 244 0.0 2.0 0.00 0.00 0.00 80 998.3
20260506010204 80 244 0.0 2.0 0.00 0.00 0.00 80 998.3
20260506010003 80 286 0.0 2.0 0.00 0.00 0.00 80 998.3
20260506005902 80 286 0.0 3.0 0.00 0.00 0.00 80 998.3
20260506005802 80 286 0.0 3.0 0.00 0.00 0.00 80 998.3
20260506005702 80 286 0.0 3.0 0.00 0.00 0.00 80 998.3
20260506005604 80 286 0.0 3.0 0.00 0.00 0.00 80 998.2
20260506005503 80 228 0.0 3.0 0.00 0.00 0.00 80 998.2
20260506005403 80 228 0.0 3.0 0.00 0.00 0.00 80 998.2
20260506005305 80 228 0.0 3.0 0.00 0.00 0.00 80 998.2
20260506005202 80 228 0.0 3.0 0.00 0.00 0.00 80 998.1
20260506005103 80 212 0.0 3.0 0.00 0.00 0.00 80 998.1
20260506005002 80 278 0.0 3.0 0.00 0.00 0.00 80 998.1
20260506004902 80 216 0.0 2.0 0.00 0.00 0.00 80 998.1
20260506004802 80 216 0.0 2.0 0.00 0.00 0.00 80 998.2
20260506004704 80 216 0.0 2.0 0.00 0.00 0.00 80 998.1
20260506004604 80 186 0.0 2.0 0.00 0.00 0.00 80 998.1
20260506004500 80 171 0.0 2.0 0.00 0.00 0.00 80 998.1
20260506004358 80 171 1.0 2.0 0.00 0.00 0.00 80 998.2
20260506004258 80 188 0.0 2.0 0.00 0.00 0.00 80 998.2
20260506004150 80 265 0.0 2.0 0.00 0.00 0.00 80 998.2
20260506004047 80 265 0.0 2.0 0.00 0.00 0.00 80 998.2
20260506003945 80 265 0.0 2.0 0.00 0.00 0.00 80 998.1
20260506003838 80 265 0.0 1.0 0.00 0.00 0.00 80 998.2
20260506003731 80 265 0.0 1.0 0.00 0.00 0.00 80 998.1
20260506003633 80 265 0.0 1.0 0.00 0.00 0.00 80 998.2
20260506003532 80 265 0.0 1.0 0.00 0.00 0.00 80 998.1
20260506003431 80 265 0.0 1.0 0.00 0.00 0.00 80 998.1
20260506003330 80 265 0.0 1.0 0.00 0.00 0.00 80 998.2
20260506003231 80 265 0.0 2.0 0.00 0.00 0.00 80 998.1
20260506003123 80 255 0.0 2.0 0.00 0.00 0.00 80 998.1
20260506003022 80 255 0.0 2.0 0.00 0.00 0.00 80 998.2
20260506002921 80 255 0.0 2.0 0.00 0.00 0.00 80 998.2
20260506002822 80 255 0.0 2.0 0.00 0.00 0.00 80 998.1
20260506002723 80 255 0.0 2.0 0.00 0.00 0.00 80 998.1
20260506002623 81 255 0.0 2.0 0.00 0.00 0.00 80 998.2
20260506002521 81 219 0.0 2.0 0.00 0.00 0.00 80 998.2
20260506002423 81 219 0.0 2.0 0.00 0.00 0.00 80 998.1
20260506002323 81 219 0.0 2.0 0.00 0.00 0.00 80 998.1
20260506002223 81 219 0.0 2.0 0.00 0.00 0.00 80 998.1
20260506002123 81 219 0.0 2.0 0.00 0.00 0.00 80 998.2
20260506002024 81 219 0.0 2.0 0.00 0.00 0.00 80 998.1
20260506001921 81 219 0.0 2.0 0.00 0.00 0.00 80 998.2
20260506001823 81 219 0.0 2.0 0.00 0.00 0.00 79 998.2
20260506001722 81 219 0.0 4.0 0.00 0.00 0.00 79 998.2
20260506001622 81 141 0.0 4.0 0.00 0.00 0.00 79 998.1
20260506001522 81 141 0.0 4.0 0.00 0.00 0.00 79 998.1
20260506001423 81 135 0.0 4.0 0.00 0.00 0.00 79 998.1
20260506001321 81 135 0.0 4.0 0.00 0.00 0.00 79 998.2
20260506001223 81 266 0.0 4.0 0.00 0.00 0.00 79 998.2
20260506001123 81 266 0.0 4.0 0.00 0.00 0.00 79 998.2
20260506001023 81 266 0.0 4.0 0.00 0.00 0.00 79 998.2
20260506000922 81 266 1.0 4.0 0.00 0.00 0.00 79 998.2
20260506000822 81 266 1.0 4.0 0.00 0.00 0.00 79 998.2
20260506000721 81 321 0.0 2.0 0.00 0.00 0.00 79 998.2
20260506000622 81 0 1.0 2.0 0.00 0.00 0.00 79 998.3
20260506000522 81 140 0.0 2.0 0.00 0.00 0.00 79 998.3
20260506000423 81 254 0.0 2.0 0.00 0.00 0.00 79 998.3
20260506000323 81 255 0.0 2.0 0.00 0.00 0.00 79 998.3
20260506000222 81 255 0.0 2.0 0.00 0.00 0.00 79 998.4
20260506000122 81 272 0.0 3.0 0.00 0.00 0.00 79 998.3
20260506000023 81 223 0.0 3.0 0.00 0.00 0.00 79 998.3
20260505235923 81 223 0.0 3.0 0.00 0.00 0.00 79 998.3
20260505235821 81 89 0.0 3.0 0.00 0.00 0.00 79 998.3
20260505235722 81 89 0.0 3.0 0.00 0.00 0.00 79 998.2
20260505235622 81 89 0.0 3.0 0.00 0.00 0.00 79 998.2
20260505235524 81 89 1.0 3.0 0.00 0.00 0.00 79 998.1
20260505235422 81 89 0.0 3.0 0.00 0.00 0.00 79 998.1
20260505235321 81 196 1.0 3.0 0.00 0.00 0.00 79 998.1
20260505235222 81 196 2.0 3.0 0.00 0.00 0.00 79 998.0
20260505235121 81 321 0.0 2.0 0.00 0.00 0.00 79 998.1
20260505235023 81 142 0.0 1.0 0.00 0.00 0.00 79 998.0
20260505234921 81 142 0.0 2.0 0.00 0.00 0.00 79 998.0
20260505234821 81 142 0.0 2.0 0.00 0.00 0.00 80 998.0